Time,TemperatureF,DewpointF,PressureIn,WindDirection,WindDirectionDegrees,WindSpeedMPH,WindSpeedGustMPH,Humidity,HourlyPrecipIn,Conditions,Clouds,dailyrainin,SoftwareType,DateUTC
2013-05-18 00:01:00,60.9,51.4,29.96,East,84,1.0,1.0,71,0.00,,,0.00,Wunderground v.1.15,2013-05-18 05:01:00,
2013-05-18 00:02:00,60.8,51.3,29.96,East,84,1.0,1.0,71,0.00,,,0.00,Wunderground v.1.15,2013-05-18 05:02:00,
2013-05-18 00:03:00,60.8,51.3,29.96,East,84,1.0,1.0,71,0.00,,,0.00,Wunderground v.1.15,2013-05-18 05:03:00,
2013-05-18 00:06:00,60.7,51.2,29.96,East,84,1.0,1.0,71,0.00,,,0.00,Wunderground v.1.15,2013-05-18 05:06:00,
2013-05-18 00:07:00,60.7,51.2,29.96,East,84,0.0,1.0,71,0.00,,,0.00,Wunderground v.1.15,2013-05-18 05:07:00,
2013-05-18 00:08:00,60.7,51.2,29.96,East,84,0.0,1.0,71,0.00,,,0.00,Wunderground v.1.15,2013-05-18 05:08:00,
2013-05-18 00:10:00,60.6,51.1,29.96,East,84,0.0,0.0,71,0.00,,,0.00,Wunderground v.1.15,2013-05-18 05:10:00,
2013-05-18 00:11:00,60.5,51.0,29.96,East,84,0.0,1.0,71,0.00,,,0.00,Wunderground v.1.15,2013-05-18 05:11:00,
2013-05-18 00:14:00,60.4,51.0,29.96,East,84,0.0,1.0,71,0.00,,,0.00,Wunderground v.1.15,2013-05-18 05:14:00,
2013-05-18 00:17:00,60.3,51.2,29.96,East,84,0.0,1.0,72,0.00,,,0.00,Wunderground v.1.15,2013-05-18 05:17:00,
2013-05-18 00:19:00,60.2,51.1,29.96,East,84,0.0,3.0,72,0.00,,,0.00,Wunderground v.1.15,2013-05-18 05:19:00,
2013-05-18 00:21:00,60.1,51.0,29.96,East,84,0.0,0.0,72,0.00,,,0.00,Wunderground v.1.15,2013-05-18 05:21:00,
2013-05-18 00:22:00,60.1,51.0,29.96,East,84,0.0,0.0,72,0.00,,,0.00,Wunderground v.1.15,2013-05-18 05:22:00,
2013-05-18 00:24:00,60.0,51.3,29.96,East,84,0.0,2.0,73,0.00,,,0.00,Wunderground v.1.15,2013-05-18 05:24:00,
2013-05-18 00:27:00,59.9,51.2,29.96,East,84,0.0,2.0,73,0.00,,,0.00,Wunderground v.1.15,2013-05-18 05:27:00,
2013-05-18 00:28:00,59.8,51.1,29.96,East,84,0.0,2.0,73,0.00,,,0.00,Wunderground v.1.15,2013-05-18 05:28:00,
2013-05-18 00:30:00,59.7,51.0,29.96,East,84,0.0,0.0,73,0.00,,,0.00,Wunderground v.1.15,2013-05-18 05:30:00,
2013-05-18 00:32:00,59.6,50.9,29.96,East,84,0.0,0.0,73,0.00,,,0.00,Wunderground v.1.15,2013-05-18 05:32:00,
2013-05-18 00:35:00,59.5,50.8,29.96,East,84,0.0,2.0,73,0.00,,,0.00,Wunderground v.1.15,2013-05-18 05:35:00,
2013-05-18 00:37:00,59.4,51.1,29.96,East,84,0.0,2.0,74,0.00,,,0.00,Wunderground v.1.15,2013-05-18 05:37:00,
2013-05-18 00:38:00,59.4,51.1,29.96,East,84,0.0,2.0,74,0.00,,,0.00,Wunderground v.1.15,2013-05-18 05:38:00,
2013-05-18 00:40:00,59.3,51.0,29.96,East,84,0.0,0.0,74,0.00,,,0.00,Wunderground v.1.15,2013-05-18 05:40:00,
2013-05-18 00:43:00,59.2,50.9,29.96,East,83,0.0,0.0,74,0.00,,,0.00,Wunderground v.1.15,2013-05-18 05:43:00,
2013-05-18 00:45:00,59.1,50.8,29.96,East,84,0.0,0.0,74,0.00,,,0.00,Wunderground v.1.15,2013-05-18 05:45:00,
2013-05-18 00:49:00,58.9,51.0,29.95,East,83,0.0,0.0,75,0.00,,,0.00,Wunderground v.1.15,2013-05-18 05:49:00,
2013-05-18 00:50:00,58.9,51.0,29.95,East,83,0.0,0.0,75,0.00,,,0.00,Wunderground v.1.15,2013-05-18 05:50:00,
2013-05-18 00:51:00,58.8,50.9,29.95,East,84,0.0,3.0,75,0.00,,,0.00,Wunderground v.1.15,2013-05-18 05:51:00,
2013-05-18 00:55:00,58.7,51.2,29.95,East,84,0.0,3.0,76,0.00,,,0.00,Wunderground v.1.15,2013-05-18 05:55:00,
2013-05-18 00:57:00,58.6,51.1,29.95,East,84,0.0,3.0,76,0.00,,,0.00,Wunderground v.1.15,2013-05-18 05:57:00,
2013-05-18 01:00:00,58.6,51.1,29.95,East,84,0.0,0.0,76,0.00,,,0.00,Wunderground v.1.15,2013-05-18 06:00:00,
2013-05-18 01:03:00,58.5,51.0,29.96,East,84,0.0,0.0,76,0.00,,,0.00,Wunderground v.1.15,2013-05-18 06:03:00,
2013-05-18 01:05:00,58.4,50.9,29.96,East,84,0.0,0.0,76,0.00,,,0.00,Wunderground v.1.15,2013-05-18 06:05:00,
2013-05-18 01:06:00,58.4,51.2,29.96,East,84,0.0,1.0,77,0.00,,,0.00,Wunderground v.1.15,2013-05-18 06:06:00,
2013-05-18 01:10:00,58.3,51.1,29.96,East,84,0.0,0.0,77,0.00,,,0.00,Wunderground v.1.15,2013-05-18 06:10:00,
2013-05-18 01:12:00,58.3,51.1,29.96,East,84,0.0,0.0,77,0.00,,,0.00,Wunderground v.1.15,2013-05-18 06:12:00,
2013-05-18 01:13:00,58.2,51.0,29.96,East,84,0.0,0.0,77,0.00,,,0.00,Wunderground v.1.15,2013-05-18 06:13:00,
2013-05-18 01:16:00,58.2,51.0,29.96,East,84,0.0,0.0,77,0.00,,,0.00,Wunderground v.1.15,2013-05-18 06:16:00,
2013-05-18 01:17:00,58.1,50.9,29.96,East,84,0.0,0.0,77,0.00,,,0.00,Wunderground v.1.15,2013-05-18 06:17:00,
2013-05-18 01:18:00,58.1,50.9,29.96,East,84,0.0,0.0,77,0.00,,,0.00,Wunderground v.1.15,2013-05-18 06:18:00,
2013-05-18 01:20:00,58.1,50.9,29.96,East,84,0.0,0.0,77,0.00,,,0.00,Wunderground v.1.15,2013-05-18 06:20:00,
2013-05-18 01:23:00,58.0,50.8,29.96,East,84,0.0,0.0,77,0.00,,,0.00,Wunderground v.1.15,2013-05-18 06:23:00,
2013-05-18 01:25:00,57.9,51.1,29.96,East,84,0.0,0.0,78,0.00,,,0.00,Wunderground v.1.15,2013-05-18 06:25:00,
2013-05-18 01:26:00,57.9,51.1,29.96,East,84,0.0,0.0,78,0.00,,,0.00,Wunderground v.1.15,2013-05-18 06:26:00,
2013-05-18 01:28:00,57.8,51.0,29.96,East,84,0.0,0.0,78,0.00,,,0.00,Wunderground v.1.15,2013-05-18 06:28:00,
2013-05-18 01:30:00,57.8,51.0,29.96,East,84,0.0,0.0,78,0.00,,,0.00,Wunderground v.1.15,2013-05-18 06:30:00,
2013-05-18 01:33:00,57.8,51.3,29.96,East,84,0.0,0.0,79,0.00,,,0.00,Wunderground v.1.15,2013-05-18 06:33:00,
2013-05-18 01:36:00,57.8,51.3,29.96,East,84,0.0,0.0,79,0.00,,,0.00,Wunderground v.1.15,2013-05-18 06:36:00,
2013-05-18 01:37:00,57.8,51.3,29.96,East,84,0.0,0.0,79,0.00,,,0.00,Wunderground v.1.15,2013-05-18 06:37:00,
2013-05-18 01:39:00,57.8,51.3,29.96,East,84,0.0,0.0,79,0.00,,,0.00,Wunderground v.1.15,2013-05-18 06:39:00,
2013-05-18 01:40:00,57.8,51.0,29.97,East,84,0.0,0.0,78,0.00,,,0.00,Wunderground v.1.15,2013-05-18 06:40:00,
2013-05-18 01:42:00,57.8,51.0,29.97,East,84,0.0,0.0,78,0.00,,,0.00,Wunderground v.1.15,2013-05-18 06:42:00,
2013-05-18 01:45:00,57.8,51.0,29.96,East,84,0.0,2.0,78,0.00,,,0.00,Wunderground v.1.15,2013-05-18 06:45:00,
2013-05-18 01:46:00,57.8,51.0,29.96,East,84,0.0,2.0,78,0.00,,,0.00,Wunderground v.1.15,2013-05-18 06:46:00,
2013-05-18 01:47:00,57.8,51.0,29.96,East,84,0.0,2.0,78,0.00,,,0.00,Wunderground v.1.15,2013-05-18 06:47:00,
2013-05-18 01:50:00,57.8,51.0,29.97,East,84,0.0,0.0,78,0.00,,,0.00,Wunderground v.1.15,2013-05-18 06:50:00,
2013-05-18 01:51:00,57.8,51.0,29.97,East,84,0.0,0.0,78,0.00,,,0.00,Wunderground v.1.15,2013-05-18 06:51:00,
2013-05-18 01:52:00,57.8,51.0,29.97,East,84,0.0,0.0,78,0.00,,,0.00,Wunderground v.1.15,2013-05-18 06:52:00,
2013-05-18 01:55:00,57.8,51.3,29.97,East,84,0.0,0.0,79,0.00,,,0.00,Wunderground v.1.15,2013-05-18 06:55:00,
2013-05-18 01:58:00,57.7,51.2,29.97,East,84,0.0,0.0,79,0.00,,,0.00,Wunderground v.1.15,2013-05-18 06:58:00,
2013-05-18 02:00:00,57.7,51.2,29.98,East,84,0.0,0.0,79,0.00,,,0.00,Wunderground v.1.15,2013-05-18 07:00:00,
2013-05-18 02:01:00,57.7,51.2,29.97,East,84,0.0,0.0,79,0.00,,,0.00,Wunderground v.1.15,2013-05-18 07:01:00,
2013-05-18 02:04:00,57.7,51.2,29.98,East,84,0.0,0.0,79,0.00,,,0.00,Wunderground v.1.15,2013-05-18 07:04:00,
2013-05-18 02:06:00,57.7,51.2,29.98,East,84,0.0,2.0,79,0.00,,,0.00,Wunderground v.1.15,2013-05-18 07:06:00,
2013-05-18 02:07:00,57.7,51.2,29.98,East,84,0.0,2.0,79,0.00,,,0.00,Wunderground v.1.15,2013-05-18 07:07:00,
2013-05-18 02:08:00,57.7,51.2,29.98,East,84,0.0,2.0,79,0.00,,,0.00,Wunderground v.1.15,2013-05-18 07:08:00,
2013-05-18 02:10:00,57.7,51.2,29.97,East,84,0.0,0.0,79,0.00,,,0.00,Wunderground v.1.15,2013-05-18 07:10:00,
2013-05-18 02:12:00,57.7,51.2,29.98,East,84,0.0,0.0,79,0.00,,,0.00,Wunderground v.1.15,2013-05-18 07:12:00,
2013-05-18 02:14:00,57.6,51.1,29.98,East,84,0.0,1.0,79,0.00,,,0.00,Wunderground v.1.15,2013-05-18 07:14:00,
2013-05-18 02:15:00,57.6,51.1,29.97,East,84,0.0,1.0,79,0.00,,,0.00,Wunderground v.1.15,2013-05-18 07:15:00,
2013-05-18 02:16:00,57.6,51.1,29.98,East,84,0.0,1.0,79,0.00,,,0.00,Wunderground v.1.15,2013-05-18 07:16:00,
2013-05-18 02:20:00,57.5,51.0,29.98,East,84,0.0,0.0,79,0.00,,,0.00,Wunderground v.1.15,2013-05-18 07:20:00,
2013-05-18 02:22:00,57.5,51.0,29.98,East,84,0.0,0.0,79,0.00,,,0.00,Wunderground v.1.15,2013-05-18 07:22:00,
2013-05-18 02:23:00,57.5,51.0,29.98,East,84,0.0,0.0,79,0.00,,,0.00,Wunderground v.1.15,2013-05-18 07:23:00,
2013-05-18 02:28:00,57.4,51.3,29.98,East,84,0.0,0.0,80,0.00,,,0.00,Wunderground v.1.15,2013-05-18 07:28:00,
2013-05-18 02:29:00,57.4,51.3,29.98,East,84,0.0,0.0,80,0.00,,,0.00,Wunderground v.1.15,2013-05-18 07:29:00,
2013-05-18 02:31:00,57.4,51.3,29.98,East,84,0.0,0.0,80,0.00,,,0.00,Wunderground v.1.15,2013-05-18 07:31:00,
2013-05-18 02:32:00,57.4,51.3,29.98,East,84,0.0,0.0,80,0.00,,,0.00,Wunderground v.1.15,2013-05-18 07:32:00,
2013-05-18 02:35:00,57.4,51.3,29.98,East,84,0.0,0.0,80,0.00,,,0.00,Wunderground v.1.15,2013-05-18 07:35:00,
2013-05-18 02:36:00,57.3,51.2,29.98,East,84,0.0,0.0,80,0.00,,,0.00,Wunderground v.1.15,2013-05-18 07:36:00,
2013-05-18 02:37:00,57.3,51.2,29.98,East,84,0.0,0.0,80,0.00,,,0.00,Wunderground v.1.15,2013-05-18 07:37:00,
2013-05-18 02:40:00,57.3,51.2,29.98,East,84,0.0,0.0,80,0.00,,,0.00,Wunderground v.1.15,2013-05-18 07:40:00,
2013-05-18 02:41:00,57.3,51.2,29.98,East,84,0.0,0.0,80,0.00,,,0.00,Wunderground v.1.15,2013-05-18 07:41:00,
2013-05-18 02:43:00,57.3,51.2,29.98,East,84,0.0,0.0,80,0.00,,,0.00,Wunderground v.1.15,2013-05-18 07:43:00,
2013-05-18 02:45:00,57.3,51.2,29.98,East,84,0.0,0.0,80,0.00,,,0.00,Wunderground v.1.15,2013-05-18 07:45:00,
2013-05-18 02:46:00,57.4,51.3,29.98,East,84,0.0,0.0,80,0.00,,,0.00,Wunderground v.1.15,2013-05-18 07:46:00,
2013-05-18 02:47:00,57.4,51.3,29.98,East,84,0.0,0.0,80,0.00,,,0.00,Wunderground v.1.15,2013-05-18 07:47:00,
2013-05-18 02:48:00,57.4,51.3,29.98,East,84,0.0,0.0,80,0.00,,,0.00,Wunderground v.1.15,2013-05-18 07:48:00,
2013-05-18 02:49:00,57.4,51.3,29.98,East,84,0.0,0.0,80,0.00,,,0.00,Wunderground v.1.15,2013-05-18 07:49:00,
2013-05-18 02:52:00,57.5,51.4,29.98,East,84,0.0,1.0,80,0.00,,,0.00,Wunderground v.1.15,2013-05-18 07:52:00,
2013-05-18 02:54:00,57.6,51.5,29.98,East,84,0.0,1.0,80,0.00,,,0.00,Wunderground v.1.15,2013-05-18 07:54:00,
2013-05-18 02:55:00,57.6,51.5,29.98,East,84,0.0,1.0,80,0.00,,,0.00,Wunderground v.1.15,2013-05-18 07:55:00,
2013-05-18 02:57:00,57.7,51.6,29.98,East,84,0.0,1.0,80,0.00,,,0.00,Wunderground v.1.15,2013-05-18 07:57:00,
2013-05-18 02:58:00,57.7,51.6,29.98,East,87,0.0,4.0,80,0.00,,,0.00,Wunderground v.1.15,2013-05-18 07:58:00,
2013-05-18 03:02:00,57.8,51.7,29.98,East,87,1.0,2.0,80,0.00,,,0.00,Wunderground v.1.15,2013-05-18 08:02:00,
2013-05-18 03:03:00,57.9,51.8,29.98,East,88,1.0,2.0,80,0.00,,,0.00,Wunderground v.1.15,2013-05-18 08:03:00,
2013-05-18 03:08:00,58.0,51.9,29.98,East,88,1.0,3.0,80,0.00,,,0.00,Wunderground v.1.15,2013-05-18 08:08:00,
2013-05-18 03:12:00,58.1,52.0,29.98,East,88,1.0,1.0,80,0.00,,,0.00,Wunderground v.1.15,2013-05-18 08:12:00,
2013-05-18 03:13:00,58.1,52.0,29.98,East,88,1.0,1.0,80,0.00,,,0.00,Wunderground v.1.15,2013-05-18 08:13:00,
2013-05-18 03:15:00,58.1,52.0,29.98,East,88,0.0,1.0,80,0.00,,,0.00,Wunderground v.1.15,2013-05-18 08:15:00,
2013-05-18 03:17:00,58.2,52.1,29.98,East,88,0.0,1.0,80,0.00,,,0.00,Wunderground v.1.15,2013-05-18 08:17:00,
2013-05-18 03:18:00,58.2,52.1,29.98,East,88,0.0,1.0,80,0.00,,,0.00,Wunderground v.1.15,2013-05-18 08:18:00,
2013-05-18 03:19:00,58.1,52.0,29.98,East,88,0.0,1.0,80,0.00,,,0.00,Wunderground v.1.15,2013-05-18 08:19:00,
2013-05-18 03:20:00,58.2,52.1,29.98,East,88,0.0,0.0,80,0.00,,,0.00,Wunderground v.1.15,2013-05-18 08:20:00,
2013-05-18 03:24:00,58.2,52.1,29.98,East,88,0.0,1.0,80,0.00,,,0.00,Wunderground v.1.15,2013-05-18 08:24:00,
2013-05-18 03:25:00,58.2,52.1,29.98,East,88,0.0,1.0,80,0.00,,,0.00,Wunderground v.1.15,2013-05-18 08:25:00,
2013-05-18 03:26:00,58.2,52.1,29.98,East,88,1.0,1.0,80,0.00,,,0.00,Wunderground v.1.15,2013-05-18 08:26:00,
2013-05-18 03:27:00,58.2,52.1,29.98,East,88,1.0,2.0,80,0.00,,,0.00,Wunderground v.1.15,2013-05-18 08:27:00,
2013-05-18 03:31:00,58.3,51.8,29.98,East,88,1.0,1.0,79,0.00,,,0.00,Wunderground v.1.15,2013-05-18 08:31:00,
2013-05-18 03:32:00,58.3,51.8,29.98,East,88,1.0,1.0,79,0.00,,,0.00,Wunderground v.1.15,2013-05-18 08:32:00,
2013-05-18 03:33:00,58.3,51.8,29.99,East,88,1.0,1.0,79,0.00,,,0.00,Wunderground v.1.15,2013-05-18 08:33:00,
2013-05-18 03:34:00,58.3,51.8,29.99,East,88,1.0,3.0,79,0.00,,,0.00,Wunderground v.1.15,2013-05-18 08:34:00,
2013-05-18 03:35:00,58.3,51.8,29.99,East,88,1.0,3.0,79,0.00,,,0.00,Wunderground v.1.15,2013-05-18 08:35:00,
2013-05-18 03:37:00,58.3,51.8,29.99,East,88,1.0,3.0,79,0.00,,,0.00,Wunderground v.1.15,2013-05-18 08:37:00,
2013-05-18 03:40:00,58.3,51.8,29.99,East,88,1.0,1.0,79,0.00,,,0.00,Wunderground v.1.15,2013-05-18 08:40:00,
2013-05-18 03:41:00,58.4,51.9,29.99,East,88,1.0,1.0,79,0.00,,,0.00,Wunderground v.1.15,2013-05-18 08:41:00,
2013-05-18 03:45:00,58.4,51.9,29.99,East,88,0.0,1.0,79,0.00,,,0.00,Wunderground v.1.15,2013-05-18 08:45:00,
2013-05-18 03:46:00,58.4,51.9,29.99,East,88,0.0,1.0,79,0.00,,,0.00,Wunderground v.1.15,2013-05-18 08:46:00,
2013-05-18 03:47:00,58.4,51.9,29.99,East,88,0.0,1.0,79,0.00,,,0.00,Wunderground v.1.15,2013-05-18 08:47:00,
2013-05-18 03:48:00,58.4,51.9,29.99,East,88,0.0,1.0,79,0.00,,,0.00,Wunderground v.1.15,2013-05-18 08:48:00,
2013-05-18 03:51:00,58.4,51.9,29.99,East,87,0.0,3.0,79,0.00,,,0.00,Wunderground v.1.15,2013-05-18 08:51:00,
2013-05-18 03:55:00,58.4,51.9,29.99,East,86,1.0,3.0,79,0.00,,,0.00,Wunderground v.1.15,2013-05-18 08:55:00,
2013-05-18 03:56:00,58.5,52.0,29.99,East,86,1.0,3.0,79,0.00,,,0.00,Wunderground v.1.15,2013-05-18 08:56:00,
2013-05-18 03:58:00,58.5,52.0,29.99,East,86,1.0,3.0,79,0.00,,,0.00,Wunderground v.1.15,2013-05-18 08:58:00,
2013-05-18 03:59:00,58.5,52.0,29.99,East,86,1.0,3.0,79,0.00,,,0.00,Wunderground v.1.15,2013-05-18 08:59:00,
2013-05-18 04:02:00,58.5,52.0,29.99,East,86,1.0,1.0,79,0.00,,,0.00,Wunderground v.1.15,2013-05-18 09:02:00,
2013-05-18 04:05:00,58.5,52.0,29.99,East,86,1.0,3.0,79,0.00,,,0.00,Wunderground v.1.15,2013-05-18 09:05:00,
2013-05-18 04:06:00,58.5,52.0,29.99,East,86,1.0,3.0,79,0.00,,,0.00,Wunderground v.1.15,2013-05-18 09:06:00,
2013-05-18 04:09:00,58.5,52.0,29.99,East,86,0.0,3.0,79,0.00,,,0.00,Wunderground v.1.15,2013-05-18 09:09:00,
2013-05-18 04:10:00,58.5,52.0,29.99,East,86,0.0,0.0,79,0.00,,,0.00,Wunderground v.1.15,2013-05-18 09:10:00,
2013-05-18 04:12:00,58.5,52.0,29.99,East,86,0.0,0.0,79,0.00,,,0.00,Wunderground v.1.15,2013-05-18 09:12:00,
2013-05-18 04:14:00,58.5,52.0,29.99,East,86,0.0,0.0,79,0.00,,,0.00,Wunderground v.1.15,2013-05-18 09:14:00,
2013-05-18 04:16:00,58.5,52.0,29.99,East,86,0.0,0.0,79,0.00,,,0.00,Wunderground v.1.15,2013-05-18 09:16:00,
2013-05-18 04:18:00,58.5,52.4,29.99,East,86,0.0,0.0,80,0.00,,,0.00,Wunderground v.1.15,2013-05-18 09:18:00,
2013-05-18 04:19:00,58.5,52.4,29.99,East,86,0.0,0.0,80,0.00,,,0.00,Wunderground v.1.15,2013-05-18 09:19:00,
2013-05-18 04:21:00,58.5,52.4,29.99,East,86,0.0,1.0,80,0.00,,,0.00,Wunderground v.1.15,2013-05-18 09:21:00,
2013-05-18 04:22:00,58.5,52.4,29.99,East,86,0.0,1.0,80,0.00,,,0.00,Wunderground v.1.15,2013-05-18 09:22:00,
2013-05-18 04:24:00,58.5,52.4,29.99,East,86,1.0,2.0,80,0.00,,,0.00,Wunderground v.1.15,2013-05-18 09:24:00,
2013-05-18 04:25:00,58.5,52.4,29.99,East,86,1.0,2.0,80,0.00,,,0.00,Wunderground v.1.15,2013-05-18 09:25:00,
2013-05-18 04:26:00,58.5,52.4,29.99,East,86,1.0,2.0,80,0.00,,,0.00,Wunderground v.1.15,2013-05-18 09:26:00,
2013-05-18 04:27:00,58.5,52.4,29.99,East,86,1.0,2.0,80,0.00,,,0.00,Wunderground v.1.15,2013-05-18 09:27:00,
2013-05-18 04:28:00,58.5,52.4,29.99,East,86,1.0,2.0,80,0.00,,,0.00,Wunderground v.1.15,2013-05-18 09:28:00,
2013-05-18 04:30:00,58.5,52.4,29.98,East,86,1.0,2.0,80,0.00,,,0.00,Wunderground v.1.15,2013-05-18 09:30:00,
2013-05-18 04:32:00,58.5,52.4,29.98,East,89,1.0,3.0,80,0.00,,,0.00,Wunderground v.1.15,2013-05-18 09:32:00,
2013-05-18 04:34:00,58.5,52.4,29.98,East,88,2.0,4.0,80,0.00,,,0.00,Wunderground v.1.15,2013-05-18 09:34:00,
2013-05-18 04:37:00,58.5,52.0,29.98,East,89,2.0,4.0,79,0.00,,,0.00,Wunderground v.1.15,2013-05-18 09:37:00,
2013-05-18 04:38:00,58.5,52.0,29.98,East,89,2.0,4.0,79,0.00,,,0.00,Wunderground v.1.15,2013-05-18 09:38:00,
2013-05-18 04:39:00,58.5,52.4,29.98,East,89,2.0,4.0,80,0.00,,,0.00,Wunderground v.1.15,2013-05-18 09:39:00,
2013-05-18 04:41:00,58.5,52.4,29.98,East,89,2.0,2.0,80,0.00,,,0.00,Wunderground v.1.15,2013-05-18 09:41:00,
2013-05-18 04:43:00,58.5,52.4,29.98,East,89,2.0,2.0,80,0.00,,,0.00,Wunderground v.1.15,2013-05-18 09:43:00,
2013-05-18 04:45:00,58.4,52.3,29.98,East,90,1.0,2.0,80,0.00,,,0.00,Wunderground v.1.15,2013-05-18 09:45:00,
2013-05-18 04:46:00,58.5,52.0,29.98,East,90,1.0,2.0,79,0.00,,,0.00,Wunderground v.1.15,2013-05-18 09:46:00,
2013-05-18 04:47:00,58.4,51.9,29.98,East,90,1.0,2.0,79,0.00,,,0.00,Wunderground v.1.15,2013-05-18 09:47:00,
2013-05-18 04:49:00,58.4,51.9,29.98,East,90,1.0,3.0,79,0.00,,,0.00,Wunderground v.1.15,2013-05-18 09:49:00,
2013-05-18 04:51:00,58.4,51.9,29.98,East,88,1.0,1.0,79,0.00,,,0.00,Wunderground v.1.15,2013-05-18 09:51:00,
2013-05-18 04:52:00,58.4,51.9,29.98,East,88,1.0,1.0,79,0.00,,,0.00,Wunderground v.1.15,2013-05-18 09:52:00,
2013-05-18 04:56:00,58.4,52.3,29.98,East,88,1.0,1.0,80,0.00,,,0.00,Wunderground v.1.15,2013-05-18 09:56:00,
2013-05-18 04:57:00,58.4,52.3,29.98,East,88,1.0,3.0,80,0.00,,,0.00,Wunderground v.1.15,2013-05-18 09:57:00,
2013-05-18 04:58:00,58.4,52.3,29.98,East,88,1.0,3.0,80,0.00,,,0.00,Wunderground v.1.15,2013-05-18 09:58:00,
2013-05-18 04:59:00,58.4,52.3,29.98,East,88,1.0,3.0,80,0.00,,,0.00,Wunderground v.1.15,2013-05-18 09:59:00,
2013-05-18 05:02:00,58.4,52.3,29.98,East,88,0.0,2.0,80,0.00,,,0.00,Wunderground v.1.15,2013-05-18 10:02:00,
2013-05-18 05:03:00,58.4,52.3,29.98,East,88,1.0,2.0,80,0.00,,,0.00,Wunderground v.1.15,2013-05-18 10:03:00,
2013-05-18 05:04:00,58.4,52.3,29.99,East,88,1.0,2.0,80,0.00,,,0.00,Wunderground v.1.15,2013-05-18 10:04:00,
2013-05-18 05:05:00,58.4,52.3,29.99,East,88,0.0,2.0,80,0.00,,,0.00,Wunderground v.1.15,2013-05-18 10:05:00,
2013-05-18 05:06:00,58.4,52.3,29.99,East,88,0.0,4.0,80,0.00,,,0.00,Wunderground v.1.15,2013-05-18 10:06:00,
2013-05-18 05:09:00,58.4,52.3,29.99,East,84,1.0,4.0,80,0.00,,,0.00,Wunderground v.1.15,2013-05-18 10:09:00,
2013-05-18 05:11:00,58.5,52.4,29.99,East,84,1.0,3.0,80,0.00,,,0.00,Wunderground v.1.15,2013-05-18 10:11:00,
2013-05-18 05:12:00,58.5,52.4,29.99,East,84,1.0,3.0,80,0.00,,,0.00,Wunderground v.1.15,2013-05-18 10:12:00,
2013-05-18 05:14:00,58.5,52.7,29.99,East,84,1.0,3.0,81,0.00,,,0.00,Wunderground v.1.15,2013-05-18 10:14:00,
2013-05-18 05:15:00,58.5,52.7,29.99,East,84,1.0,3.0,81,0.00,,,0.00,Wunderground v.1.15,2013-05-18 10:15:00,
2013-05-18 05:17:00,58.5,52.7,29.99,East,84,1.0,3.0,81,0.00,,,0.00,Wunderground v.1.15,2013-05-18 10:17:00,
2013-05-18 05:18:00,58.5,52.7,29.99,East,84,1.0,3.0,81,0.00,,,0.00,Wunderground v.1.15,2013-05-18 10:18:00,
2013-05-18 05:19:00,58.5,52.7,29.99,East,84,1.0,3.0,81,0.00,,,0.00,Wunderground v.1.15,2013-05-18 10:19:00,
2013-05-18 05:20:00,58.5,52.7,29.99,East,84,1.0,1.0,81,0.00,,,0.00,Wunderground v.1.15,2013-05-18 10:20:00,
2013-05-18 05:21:00,58.5,52.7,29.99,East,84,0.0,1.0,81,0.00,,,0.00,Wunderground v.1.15,2013-05-18 10:21:00,
2013-05-18 05:23:00,58.5,52.7,29.99,East,84,0.0,1.0,81,0.00,,,0.00,Wunderground v.1.15,2013-05-18 10:23:00,
2013-05-18 05:24:00,58.5,52.7,29.99,East,84,0.0,1.0,81,0.00,,,0.00,Wunderground v.1.15,2013-05-18 10:24:00,
2013-05-18 05:25:00,58.5,52.7,29.99,East,84,0.0,1.0,81,0.00,,,0.00,Wunderground v.1.15,2013-05-18 10:25:00,
2013-05-18 05:30:00,58.5,52.7,29.99,East,84,0.0,0.0,81,0.00,,,0.00,Wunderground v.1.15,2013-05-18 10:30:00,
2013-05-18 05:31:00,58.5,52.7,29.99,East,84,0.0,0.0,81,0.00,,,0.00,Wunderground v.1.15,2013-05-18 10:31:00,
2013-05-18 05:32:00,58.5,52.7,29.99,East,84,0.0,0.0,81,0.00,,,0.00,Wunderground v.1.15,2013-05-18 10:32:00,
2013-05-18 05:33:00,58.5,52.7,29.99,East,84,0.0,0.0,81,0.00,,,0.00,Wunderground v.1.15,2013-05-18 10:33:00,
2013-05-18 05:37:00,58.5,52.7,29.99,East,84,0.0,0.0,81,0.00,,,0.00,Wunderground v.1.15,2013-05-18 10:37:00,
2013-05-18 05:38:00,58.5,52.7,29.99,East,84,0.0,0.0,81,0.00,,,0.00,Wunderground v.1.15,2013-05-18 10:38:00,
2013-05-18 05:40:00,58.4,52.6,29.99,East,84,0.0,0.0,81,0.00,,,0.00,Wunderground v.1.15,2013-05-18 10:40:00,
2013-05-18 05:42:00,58.4,52.6,29.99,East,84,0.0,0.0,81,0.00,,,0.00,Wunderground v.1.15,2013-05-18 10:42:00,
2013-05-18 05:43:00,58.4,52.6,29.99,East,84,0.0,2.0,81,0.00,,,0.00,Wunderground v.1.15,2013-05-18 10:43:00,
2013-05-18 05:45:00,58.4,52.6,29.99,East,84,0.0,2.0,81,0.00,,,0.00,Wunderground v.1.15,2013-05-18 10:45:00,
2013-05-18 05:47:00,58.4,52.6,29.99,East,84,0.0,2.0,81,0.00,,,0.00,Wunderground v.1.15,2013-05-18 10:47:00,
2013-05-18 05:48:00,58.3,52.5,29.99,East,84,0.0,2.0,81,0.00,,,0.00,Wunderground v.1.15,2013-05-18 10:48:00,
2013-05-18 05:50:00,58.3,52.5,29.99,East,84,0.0,0.0,81,0.00,,,0.00,Wunderground v.1.15,2013-05-18 10:50:00,
2013-05-18 05:52:00,58.3,52.5,29.99,East,84,0.0,0.0,81,0.00,,,0.00,Wunderground v.1.15,2013-05-18 10:52:00,
2013-05-18 05:53:00,58.3,52.5,29.99,East,84,0.0,0.0,81,0.00,,,0.00,Wunderground v.1.15,2013-05-18 10:53:00,
2013-05-18 05:54:00,58.3,52.5,29.99,East,84,0.0,0.0,81,0.00,,,0.00,Wunderground v.1.15,2013-05-18 10:54:00,
2013-05-18 05:58:00,58.3,52.5,29.99,East,84,0.0,0.0,81,0.00,,,0.00,Wunderground v.1.15,2013-05-18 10:58:00,
2013-05-18 06:00:00,58.3,52.5,29.98,East,84,0.0,0.0,81,0.00,,,0.00,Wunderground v.1.15,2013-05-18 11:00:00,
2013-05-18 06:02:00,58.3,52.5,29.99,East,84,0.0,0.0,81,0.00,,,0.00,Wunderground v.1.15,2013-05-18 11:02:00,
2013-05-18 06:04:00,58.3,52.8,29.99,East,84,0.0,0.0,82,0.00,,,0.00,Wunderground v.1.15,2013-05-18 11:04:00,
2013-05-18 06:05:00,58.3,52.8,29.99,East,84,0.0,0.0,82,0.00,,,0.00,Wunderground v.1.15,2013-05-18 11:05:00,
2013-05-18 06:06:00,58.3,52.8,29.99,East,84,0.0,0.0,82,0.00,,,0.00,Wunderground v.1.15,2013-05-18 11:06:00,
2013-05-18 06:08:00,58.3,52.8,29.99,East,84,0.0,0.0,82,0.00,,,0.00,Wunderground v.1.15,2013-05-18 11:08:00,
2013-05-18 06:10:00,58.3,52.8,29.99,East,84,0.0,0.0,82,0.00,,,0.00,Wunderground v.1.15,2013-05-18 11:10:00,
2013-05-18 06:11:00,58.3,52.8,29.99,East,84,0.0,3.0,82,0.00,,,0.00,Wunderground v.1.15,2013-05-18 11:11:00,
2013-05-18 06:14:00,58.3,52.8,29.99,East,84,1.0,3.0,82,0.00,,,0.00,Wunderground v.1.15,2013-05-18 11:14:00,
2013-05-18 06:15:00,58.3,52.8,29.98,East,84,1.0,3.0,82,0.00,,,0.00,Wunderground v.1.15,2013-05-18 11:15:00,
2013-05-18 06:17:00,58.3,52.8,29.99,East,84,1.0,3.0,82,0.00,,,0.00,Wunderground v.1.15,2013-05-18 11:17:00,
2013-05-18 06:19:00,58.3,52.8,29.99,East,84,1.0,1.0,82,0.00,,,0.00,Wunderground v.1.15,2013-05-18 11:19:00,
2013-05-18 06:22:00,58.3,52.8,29.99,East,84,1.0,1.0,82,0.00,,,0.00,Wunderground v.1.15,2013-05-18 11:22:00,
2013-05-18 06:25:00,58.4,52.9,29.99,East,84,0.0,1.0,82,0.00,,,0.00,Wunderground v.1.15,2013-05-18 11:25:00,
2013-05-18 06:26:00,58.4,52.9,29.99,East,84,0.0,3.0,82,0.00,,,0.00,Wunderground v.1.15,2013-05-18 11:26:00,
2013-05-18 06:27:00,58.4,52.9,30.00,East,84,0.0,3.0,82,0.00,,,0.00,Wunderground v.1.15,2013-05-18 11:27:00,
2013-05-18 06:28:00,58.4,52.9,30.00,East,84,0.0,3.0,82,0.00,,,0.00,Wunderground v.1.15,2013-05-18 11:28:00,
2013-05-18 06:30:00,58.4,52.9,29.99,East,84,1.0,1.0,82,0.00,,,0.00,Wunderground v.1.15,2013-05-18 11:30:00,
2013-05-18 06:31:00,58.4,52.9,30.00,East,84,1.0,1.0,82,0.00,,,0.00,Wunderground v.1.15,2013-05-18 11:31:00,
2013-05-18 06:33:00,58.4,52.9,30.00,East,84,1.0,3.0,82,0.00,,,0.00,Wunderground v.1.15,2013-05-18 11:33:00,
2013-05-18 06:35:00,58.5,53.0,30.00,East,84,1.0,3.0,82,0.00,,,0.00,Wunderground v.1.15,2013-05-18 11:35:00,
2013-05-18 06:36:00,58.5,53.0,30.00,East,84,1.0,3.0,82,0.00,,,0.00,Wunderground v.1.15,2013-05-18 11:36:00,
2013-05-18 06:38:00,58.5,53.0,30.00,East,84,1.0,3.0,82,0.00,,,0.00,Wunderground v.1.15,2013-05-18 11:38:00,
2013-05-18 06:40:00,58.5,53.0,30.00,East,84,1.0,1.0,82,0.00,,,0.00,Wunderground v.1.15,2013-05-18 11:40:00,
2013-05-18 06:42:00,58.6,53.1,30.00,East,84,1.0,1.0,82,0.00,,,0.00,Wunderground v.1.15,2013-05-18 11:42:00,
2013-05-18 06:43:00,58.6,53.1,29.99,East,84,1.0,1.0,82,0.00,,,0.00,Wunderground v.1.15,2013-05-18 11:43:00,
2013-05-18 06:45:00,58.6,53.5,30.00,East,84,1.0,1.0,83,0.00,,,0.00,Wunderground v.1.15,2013-05-18 11:45:00,
2013-05-18 06:48:00,58.7,53.5,29.99,East,84,1.0,3.0,83,0.00,,,0.00,Wunderground v.1.15,2013-05-18 11:48:00,
2013-05-18 06:49:00,58.7,53.5,30.00,East,84,1.0,3.0,83,0.00,,,0.00,Wunderground v.1.15,2013-05-18 11:49:00,
2013-05-18 06:50:00,58.7,53.5,30.00,East,84,1.0,1.0,83,0.00,,,0.00,Wunderground v.1.15,2013-05-18 11:50:00,
2013-05-18 06:54:00,58.7,53.5,30.00,East,84,1.0,1.0,83,0.00,,,0.00,Wunderground v.1.15,2013-05-18 11:54:00,
2013-05-18 06:56:00,58.8,53.6,30.00,East,84,1.0,1.0,83,0.00,,,0.00,Wunderground v.1.15,2013-05-18 11:56:00,
2013-05-18 06:57:00,58.8,53.6,30.00,East,84,0.0,1.0,83,0.00,,,0.00,Wunderground v.1.15,2013-05-18 11:57:00,
2013-05-18 06:59:00,58.9,54.1,30.00,East,85,0.0,2.0,84,0.00,,,0.00,Wunderground v.1.15,2013-05-18 11:59:00,
2013-05-18 07:00:00,58.9,54.1,30.00,East,85,0.0,0.0,84,0.00,,,0.00,Wunderground v.1.15,2013-05-18 12:00:00,
2013-05-18 07:01:00,59.0,54.2,30.00,East,85,0.0,2.0,84,0.00,,,0.00,Wunderground v.1.15,2013-05-18 12:01:00,
2013-05-18 07:03:00,59.0,54.2,30.00,East,85,1.0,2.0,84,0.00,,,0.00,Wunderground v.1.15,2013-05-18 12:03:00,
2013-05-18 07:04:00,59.1,54.3,30.00,East,85,1.0,2.0,84,0.00,,,0.00,Wunderground v.1.15,2013-05-18 12:04:00,
2013-05-18 07:05:00,59.1,54.3,30.00,East,85,1.0,2.0,84,0.00,,,0.00,Wunderground v.1.15,2013-05-18 12:05:00,
2013-05-18 07:08:00,59.3,54.5,30.00,East,85,1.0,2.0,84,0.00,,,0.00,Wunderground v.1.15,2013-05-18 12:08:00,
2013-05-18 07:10:00,59.4,54.6,30.00,East,85,1.0,1.0,84,0.00,,,0.00,Wunderground v.1.15,2013-05-18 12:10:00,
2013-05-18 07:11:00,59.4,54.6,30.00,East,86,1.0,1.0,84,0.00,,,0.00,Wunderground v.1.15,2013-05-18 12:11:00,
2013-05-18 07:13:00,59.5,54.7,30.00,East,86,1.0,1.0,84,0.00,,,0.00,Wunderground v.1.15,2013-05-18 12:13:00,
2013-05-18 07:15:00,59.7,54.9,30.00,East,86,0.0,1.0,84,0.00,,,0.00,Wunderground v.1.15,2013-05-18 12:15:00,
2013-05-18 07:16:00,59.8,55.3,30.00,East,86,0.0,1.0,85,0.00,,,0.00,Wunderground v.1.15,2013-05-18 12:16:00,
2013-05-18 07:17:00,59.8,55.3,30.00,East,86,0.0,1.0,85,0.00,,,0.00,Wunderground v.1.15,2013-05-18 12:17:00,
2013-05-18 07:18:00,59.9,55.4,30.00,East,86,0.0,1.0,85,0.00,,,0.00,Wunderground v.1.15,2013-05-18 12:18:00,
2013-05-18 07:19:00,60.0,55.5,30.00,East,86,0.0,3.0,85,0.00,,,0.00,Wunderground v.1.15,2013-05-18 12:19:00,
2013-05-18 07:22:00,60.3,55.8,30.00,East,86,0.0,2.0,85,0.00,,,0.00,Wunderground v.1.15,2013-05-18 12:22:00,
2013-05-18 07:25:00,60.5,56.0,30.00,East,86,1.0,3.0,85,0.00,,,0.00,Wunderground v.1.15,2013-05-18 12:25:00,
2013-05-18 07:26:00,60.7,56.2,30.00,East,88,1.0,3.0,85,0.00,,,0.00,Wunderground v.1.15,2013-05-18 12:26:00,
2013-05-18 07:29:00,60.9,56.4,30.00,East,92,1.0,3.0,85,0.00,,,0.00,Wunderground v.1.15,2013-05-18 12:29:00,
2013-05-18 07:30:00,61.1,56.6,30.00,East,92,1.0,2.0,85,0.00,,,0.00,Wunderground v.1.15,2013-05-18 12:30:00,
2013-05-18 07:32:00,61.3,56.8,30.00,East,92,1.0,2.0,85,0.00,,,0.00,Wunderground v.1.15,2013-05-18 12:32:00,
2013-05-18 07:34:00,61.5,56.9,30.00,East,97,1.0,2.0,85,0.00,,,0.00,Wunderground v.1.15,2013-05-18 12:34:00,
2013-05-18 07:35:00,61.6,57.0,30.00,East,86,1.0,3.0,85,0.00,,,0.00,Wunderground v.1.15,2013-05-18 12:35:00,
2013-05-18 07:36:00,61.8,57.2,30.00,East,86,1.0,3.0,85,0.00,,,0.00,Wunderground v.1.15,2013-05-18 12:36:00,
2013-05-18 07:38:00,62.1,57.5,30.00,East,87,2.0,3.0,85,0.00,,,0.00,Wunderground v.1.15,2013-05-18 12:38:00,
2013-05-18 07:41:00,62.4,57.8,30.00,East,87,1.0,1.0,85,0.00,,,0.00,Wunderground v.1.15,2013-05-18 12:41:00,
2013-05-18 07:43:00,62.6,58.0,30.00,East,100,1.0,3.0,85,0.00,,,0.00,Wunderground v.1.15,2013-05-18 12:43:00,
2013-05-18 07:45:00,62.9,58.3,30.00,East,100,1.0,3.0,85,0.00,,,0.00,Wunderground v.1.15,2013-05-18 12:45:00,
2013-05-18 07:46:00,63.1,58.5,30.00,East,100,1.0,3.0,85,0.00,,,0.00,Wunderground v.1.15,2013-05-18 12:46:00,
2013-05-18 07:47:00,63.1,58.5,29.99,East,100,1.0,3.0,85,0.00,,,0.00,Wunderground v.1.15,2013-05-18 12:47:00,
2013-05-18 07:48:00,63.3,58.7,30.00,East,98,1.0,3.0,85,0.00,,,0.00,Wunderground v.1.15,2013-05-18 12:48:00,
2013-05-18 07:50:00,63.6,59.3,29.99,East,98,1.0,3.0,86,0.00,,,0.00,Wunderground v.1.15,2013-05-18 12:50:00,
2013-05-18 07:52:00,63.9,59.3,30.00,East,98,1.0,3.0,85,0.00,,,0.00,Wunderground v.1.15,2013-05-18 12:52:00,
2013-05-18 07:54:00,64.1,59.5,30.00,ESE,111,1.0,4.0,85,0.00,,,0.00,Wunderground v.1.15,2013-05-18 12:54:00,
2013-05-18 07:58:00,64.7,60.1,30.00,ESE,111,2.0,4.0,85,0.00,,,0.00,Wunderground v.1.15,2013-05-18 12:58:00,
2013-05-18 07:59:00,64.8,60.2,30.00,ESE,105,2.0,4.0,85,0.00,,,0.00,Wunderground v.1.15,2013-05-18 12:59:00,
2013-05-18 08:00:00,65.0,60.4,30.00,ESE,106,2.0,2.0,85,0.00,,,0.00,Wunderground v.1.15,2013-05-18 13:00:00,
2013-05-18 08:04:00,65.5,60.9,29.99,ESE,115,2.0,4.0,85,0.00,,,0.00,Wunderground v.1.15,2013-05-18 13:04:00,
2013-05-18 08:05:00,65.7,61.1,30.00,ESE,113,2.0,4.0,85,0.00,,,0.00,Wunderground v.1.15,2013-05-18 13:05:00,
2013-05-18 08:07:00,65.9,61.3,29.99,ESE,113,2.0,4.0,85,0.00,,,0.00,Wunderground v.1.15,2013-05-18 13:07:00,
2013-05-18 08:09:00,66.2,61.6,29.99,ESE,113,2.0,4.0,85,0.00,,,0.00,Wunderground v.1.15,2013-05-18 13:09:00,
2013-05-18 08:10:00,66.4,61.8,30.00,ESE,113,2.0,2.0,85,0.00,,,0.00,Wunderground v.1.15,2013-05-18 13:10:00,
2013-05-18 08:12:00,66.7,62.0,29.99,SSE,165,2.0,4.0,85,0.00,,,0.00,Wunderground v.1.15,2013-05-18 13:12:00,
2013-05-18 08:14:00,67.0,62.0,30.00,SE,141,2.0,4.0,84,0.00,,,0.00,Wunderground v.1.15,2013-05-18 13:14:00,
2013-05-18 08:16:00,67.2,62.2,30.00,ESE,118,2.0,4.0,84,0.00,,,0.00,Wunderground v.1.15,2013-05-18 13:16:00,
2013-05-18 08:18:00,67.3,62.0,30.00,ESE,108,2.0,4.0,83,0.00,,,0.00,Wunderground v.1.15,2013-05-18 13:18:00,
2013-05-18 08:19:00,67.4,62.1,30.00,ESE,108,2.0,4.0,83,0.00,,,0.00,Wunderground v.1.15,2013-05-18 13:19:00,
2013-05-18 08:23:00,67.5,61.8,29.99,SE,126,2.0,4.0,82,0.00,,,0.00,Wunderground v.1.15,2013-05-18 13:23:00,
2013-05-18 08:24:00,67.5,62.2,29.99,SE,130,2.0,4.0,83,0.00,,,0.00,Wunderground v.1.15,2013-05-18 13:24:00,
2013-05-18 08:25:00,67.6,62.3,30.00,SE,131,2.0,5.0,83,0.00,,,0.00,Wunderground v.1.15,2013-05-18 13:25:00,
2013-05-18 08:26:00,67.6,62.3,30.00,SE,134,2.0,5.0,83,0.00,,,0.00,Wunderground v.1.15,2013-05-18 13:26:00,
2013-05-18 08:28:00,67.6,62.3,30.00,SE,134,3.0,5.0,83,0.00,,,0.00,Wunderground v.1.15,2013-05-18 13:28:00,
2013-05-18 08:30:00,67.7,62.3,30.00,SE,134,2.0,2.0,83,0.00,,,0.00,Wunderground v.1.15,2013-05-18 13:30:00,
2013-05-18 08:33:00,67.8,62.4,30.00,SSE,148,2.0,3.0,83,0.00,,,0.00,Wunderground v.1.15,2013-05-18 13:33:00,
2013-05-18 08:35:00,67.9,62.5,30.00,SSE,148,2.0,3.0,83,0.00,,,0.00,Wunderground v.1.15,2013-05-18 13:35:00,
2013-05-18 08:38:00,68.0,62.6,30.00,SSE,150,1.0,4.0,83,0.00,,,0.00,Wunderground v.1.15,2013-05-18 13:38:00,
2013-05-18 08:39:00,68.1,62.7,29.99,SE,145,1.0,4.0,83,0.00,,,0.00,Wunderground v.1.15,2013-05-18 13:39:00,
2013-05-18 08:40:00,68.2,62.8,30.00,SE,145,1.0,4.0,83,0.00,,,0.00,Wunderground v.1.15,2013-05-18 13:40:00,
2013-05-18 08:41:00,68.2,62.8,30.00,SSE,157,2.0,4.0,83,0.00,,,0.00,Wunderground v.1.15,2013-05-18 13:41:00,
2013-05-18 08:45:00,68.4,63.0,30.00,SSE,157,2.0,4.0,83,0.00,,,0.00,Wunderground v.1.15,2013-05-18 13:45:00,
2013-05-18 08:46:00,68.4,63.0,29.99,SSE,157,2.0,4.0,83,0.00,,,0.00,Wunderground v.1.15,2013-05-18 13:46:00,
2013-05-18 08:47:00,68.5,63.1,29.99,SSE,157,2.0,4.0,83,0.00,,,0.00,Wunderground v.1.15,2013-05-18 13:47:00,
2013-05-18 08:51:00,68.8,63.4,29.99,SE,134,2.0,3.0,83,0.00,,,0.00,Wunderground v.1.15,2013-05-18 13:51:00,
2013-05-18 08:52:00,68.9,63.5,29.99,SE,134,2.0,3.0,83,0.00,,,0.00,Wunderground v.1.15,2013-05-18 13:52:00,
2013-05-18 08:54:00,69.1,63.4,29.99,SE,142,2.0,5.0,82,0.00,,,0.00,Wunderground v.1.15,2013-05-18 13:54:00,
2013-05-18 08:56:00,69.3,63.6,29.99,SSE,147,2.0,5.0,82,0.00,,,0.00,Wunderground v.1.15,2013-05-18 13:56:00,
2013-05-18 08:57:00,69.4,63.7,29.99,SE,138,2.0,5.0,82,0.00,,,0.00,Wunderground v.1.15,2013-05-18 13:57:00,
2013-05-18 08:58:00,69.5,63.8,29.99,SE,138,2.0,5.0,82,0.00,,,0.00,Wunderground v.1.15,2013-05-18 13:58:00,
2013-05-18 08:59:00,69.5,63.8,29.99,SE,138,2.0,5.0,82,0.00,,,0.00,Wunderground v.1.15,2013-05-18 13:59:00,
2013-05-18 09:00:00,69.6,63.9,29.99,SE,139,2.0,3.0,82,0.00,,,0.00,Wunderground v.1.15,2013-05-18 14:00:00,
2013-05-18 09:03:00,69.9,64.2,29.99,SE,139,2.0,3.0,82,0.00,,,0.00,Wunderground v.1.15,2013-05-18 14:03:00,
2013-05-18 09:05:00,70.1,64.0,30.00,SSE,148,2.0,3.0,81,0.00,,,0.00,Wunderground v.1.15,2013-05-18 14:05:00,
2013-05-18 09:07:00,70.2,64.1,30.00,SE,130,2.0,4.0,81,0.00,,,0.00,Wunderground v.1.15,2013-05-18 14:07:00,
2013-05-18 09:09:00,70.4,63.9,29.99,SE,140,2.0,4.0,80,0.00,,,0.00,Wunderground v.1.15,2013-05-18 14:09:00,
2013-05-18 09:11:00,70.5,64.0,29.99,South,169,2.0,2.0,80,0.00,,,0.00,Wunderground v.1.15,2013-05-18 14:11:00,
2013-05-18 09:12:00,70.5,64.4,29.99,South,169,3.0,3.0,81,0.00,,,0.00,Wunderground v.1.15,2013-05-18 14:12:00,
2013-05-18 09:13:00,70.6,64.1,29.99,South,169,3.0,3.0,80,0.00,,,0.00,Wunderground v.1.15,2013-05-18 14:13:00,
2013-05-18 09:16:00,71.0,64.5,29.99,SSE,167,2.0,3.0,80,0.00,,,0.00,Wunderground v.1.15,2013-05-18 14:16:00,
2013-05-18 09:18:00,71.2,65.1,30.00,SSW,202,2.0,4.0,81,0.00,,,0.00,Wunderground v.1.15,2013-05-18 14:18:00,
2013-05-18 09:20:00,71.2,64.4,30.00,SSE,160,2.0,6.0,79,0.00,,,0.00,Wunderground v.1.15,2013-05-18 14:20:00,
2013-05-18 09:21:00,71.3,64.4,30.00,South,180,2.0,6.0,79,0.00,,,0.00,Wunderground v.1.15,2013-05-18 14:21:00,
2013-05-18 09:22:00,71.3,64.4,30.00,South,180,2.0,6.0,79,0.00,,,0.00,Wunderground v.1.15,2013-05-18 14:22:00,
2013-05-18 09:23:00,71.3,64.4,30.00,South,182,2.0,6.0,79,0.00,,,0.00,Wunderground v.1.15,2013-05-18 14:23:00,
2013-05-18 09:26:00,71.6,64.7,30.00,SW,220,2.0,6.0,79,0.00,,,0.00,Wunderground v.1.15,2013-05-18 14:26:00,
2013-05-18 09:27:00,71.6,64.7,29.99,South,175,3.0,6.0,79,0.00,,,0.00,Wunderground v.1.15,2013-05-18 14:27:00,
2013-05-18 09:28:00,71.6,64.7,30.00,South,188,3.0,6.0,79,0.00,,,0.00,Wunderground v.1.15,2013-05-18 14:28:00,
2013-05-18 09:29:00,71.6,64.7,30.00,South,180,3.0,6.0,79,0.00,,,0.00,Wunderground v.1.15,2013-05-18 14:29:00,
2013-05-18 09:33:00,71.6,64.4,30.00,South,177,3.0,8.0,78,0.00,,,0.00,Wunderground v.1.15,2013-05-18 14:33:00,
2013-05-18 09:34:00,71.6,64.7,29.99,SSE,150,4.0,8.0,79,0.00,,,0.00,Wunderground v.1.15,2013-05-18 14:34:00,
2013-05-18 09:37:00,71.7,65.2,29.99,SSE,164,4.0,8.0,80,0.00,,,0.00,Wunderground v.1.15,2013-05-18 14:37:00,
2013-05-18 09:38:00,71.8,64.9,29.99,SSE,165,4.0,8.0,79,0.00,,,0.00,Wunderground v.1.15,2013-05-18 14:38:00,
2013-05-18 09:40:00,72.0,65.5,29.99,South,178,4.0,4.0,80,0.00,,,0.00,Wunderground v.1.15,2013-05-18 14:40:00,
2013-05-18 09:41:00,72.1,64.9,29.99,South,181,4.0,4.0,78,0.00,,,0.00,Wunderground v.1.15,2013-05-18 14:41:00,
2013-05-18 09:43:00,72.2,65.0,29.99,South,189,4.0,4.0,78,0.00,,,0.00,Wunderground v.1.15,2013-05-18 14:43:00,
2013-05-18 09:44:00,72.3,65.1,29.99,South,182,4.0,5.0,78,0.00,,,0.00,Wunderground v.1.15,2013-05-18 14:44:00,
2013-05-18 09:46:00,72.5,64.5,29.99,SSE,165,4.0,5.0,76,0.00,,,0.00,Wunderground v.1.15,2013-05-18 14:46:00,
2013-05-18 09:49:00,72.6,65.0,29.99,SE,144,4.0,5.0,77,0.00,,,0.00,Wunderground v.1.15,2013-05-18 14:49:00,
2013-05-18 09:50:00,72.6,65.0,29.98,SSE,165,4.0,4.0,77,0.00,,,0.00,Wunderground v.1.15,2013-05-18 14:50:00,
2013-05-18 09:52:00,72.7,64.7,29.99,SSE,168,4.0,5.0,76,0.00,,,0.00,Wunderground v.1.15,2013-05-18 14:52:00,
2013-05-18 09:53:00,72.8,64.8,29.99,South,173,4.0,6.0,76,0.00,,,0.00,Wunderground v.1.15,2013-05-18 14:53:00,
2013-05-18 09:54:00,72.8,65.2,29.98,South,169,4.0,6.0,77,0.00,,,0.00,Wunderground v.1.15,2013-05-18 14:54:00,
2013-05-18 09:56:00,73.0,65.4,29.98,SSE,157,4.0,6.0,77,0.00,,,0.00,Wunderground v.1.15,2013-05-18 14:56:00,
2013-05-18 09:57:00,73.1,65.5,29.98,ESE,115,5.0,10.0,77,0.00,,,0.00,Wunderground v.1.15,2013-05-18 14:57:00,
2013-05-18 09:58:00,73.1,65.1,29.98,SE,136,5.0,10.0,76,0.00,,,0.00,Wunderground v.1.15,2013-05-18 14:58:00,
2013-05-18 10:03:00,73.4,65.0,29.98,SSE,165,5.0,8.0,75,0.00,,,0.00,Wunderground v.1.15,2013-05-18 15:03:00,
2013-05-18 10:04:00,73.4,64.6,29.98,South,178,5.0,8.0,74,0.00,,,0.00,Wunderground v.1.15,2013-05-18 15:04:00,
2013-05-18 10:06:00,73.4,64.6,29.98,SSW,195,5.0,8.0,74,0.00,,,0.00,Wunderground v.1.15,2013-05-18 15:06:00,
2013-05-18 10:09:00,73.4,65.0,29.98,South,182,5.0,5.0,75,0.00,,,0.00,Wunderground v.1.15,2013-05-18 15:09:00,
2013-05-18 10:12:00,73.4,64.6,29.98,SSW,195,5.0,7.0,74,0.00,,,0.00,Wunderground v.1.15,2013-05-18 15:12:00,
2013-05-18 10:13:00,73.4,65.0,29.99,SSW,192,5.0,7.0,75,0.00,,,0.00,Wunderground v.1.15,2013-05-18 15:13:00,
2013-05-18 10:17:00,73.6,65.6,29.99,South,176,4.0,7.0,76,0.00,,,0.00,Wunderground v.1.15,2013-05-18 15:17:00,
2013-05-18 10:18:00,73.7,65.7,29.99,South,176,3.0,7.0,76,0.00,,,0.00,Wunderground v.1.15,2013-05-18 15:18:00,
2013-05-18 10:20:00,73.9,65.9,29.99,SSE,160,3.0,3.0,76,0.00,,,0.00,Wunderground v.1.15,2013-05-18 15:20:00,
2013-05-18 10:21:00,74.1,65.7,29.99,South,170,3.0,6.0,75,0.00,,,0.00,Wunderground v.1.15,2013-05-18 15:21:00,
2013-05-18 10:23:00,74.1,64.9,29.98,South,180,3.0,6.0,73,0.00,,,0.00,Wunderground v.1.15,2013-05-18 15:23:00,
2013-05-18 10:25:00,74.3,65.5,29.99,South,175,3.0,11.0,74,0.00,,,0.00,Wunderground v.1.15,2013-05-18 15:25:00,
2013-05-18 10:27:00,74.3,65.1,29.99,South,184,4.0,11.0,73,0.00,,,0.00,Wunderground v.1.15,2013-05-18 15:27:00,
2013-05-18 10:28:00,74.3,64.7,29.99,South,173,4.0,11.0,72,0.00,,,0.00,Wunderground v.1.15,2013-05-18 15:28:00,
2013-05-18 10:30:00,74.5,65.7,29.99,SSW,194,4.0,4.0,74,0.00,,,0.00,Wunderground v.1.15,2013-05-18 15:30:00,
2013-05-18 10:31:00,74.5,64.9,29.98,SSE,167,4.0,4.0,72,0.00,,,0.00,Wunderground v.1.15,2013-05-18 15:31:00,
2013-05-18 10:33:00,74.6,65.8,29.98,SSE,167,4.0,4.0,74,0.00,,,0.00,Wunderground v.1.15,2013-05-18 15:33:00,
2013-05-18 10:36:00,74.9,66.4,29.99,South,189,3.0,6.0,75,0.00,,,0.00,Wunderground v.1.15,2013-05-18 15:36:00,
2013-05-18 10:38:00,74.9,65.7,29.99,South,187,3.0,6.0,73,0.00,,,0.00,Wunderground v.1.15,2013-05-18 15:38:00,
2013-05-18 10:39:00,74.9,65.3,29.99,South,189,3.0,6.0,72,0.00,,,0.00,Wunderground v.1.15,2013-05-18 15:39:00,
2013-05-18 10:41:00,75.0,65.0,29.99,South,184,4.0,6.0,71,0.00,,,0.00,Wunderground v.1.15,2013-05-18 15:41:00,
2013-05-18 10:42:00,74.9,64.9,29.99,South,186,4.0,6.0,71,0.00,,,0.00,Wunderground v.1.15,2013-05-18 15:42:00,
2013-05-18 10:44:00,74.9,64.9,29.99,SSW,195,5.0,10.0,71,0.00,,,0.00,Wunderground v.1.15,2013-05-18 15:44:00,
2013-05-18 10:45:00,74.9,64.9,29.99,South,177,5.0,10.0,71,0.00,,,0.00,Wunderground v.1.15,2013-05-18 15:45:00,
2013-05-18 10:46:00,74.8,64.8,29.99,South,178,5.0,10.0,71,0.00,,,0.00,Wunderground v.1.15,2013-05-18 15:46:00,
2013-05-18 10:50:00,74.6,64.6,29.99,SSE,160,5.0,5.0,71,0.00,,,0.00,Wunderground v.1.15,2013-05-18 15:50:00,
2013-05-18 10:51:00,74.6,65.0,29.99,SE,130,5.0,5.0,72,0.00,,,0.00,Wunderground v.1.15,2013-05-18 15:51:00,
2013-05-18 10:53:00,74.5,64.5,29.99,SSW,209,5.0,8.0,71,0.00,,,0.00,Wunderground v.1.15,2013-05-18 15:53:00,
2013-05-18 10:54:00,74.5,64.9,29.99,SSE,161,4.0,9.0,72,0.00,,,0.00,Wunderground v.1.15,2013-05-18 15:54:00,
2013-05-18 10:56:00,74.5,64.9,29.99,South,191,5.0,9.0,72,0.00,,,0.00,Wunderground v.1.15,2013-05-18 15:56:00,
2013-05-18 10:57:00,74.5,64.9,29.99,South,184,5.0,9.0,72,0.00,,,0.00,Wunderground v.1.15,2013-05-18 15:57:00,
2013-05-18 10:58:00,74.5,64.1,29.99,South,175,5.0,9.0,70,0.00,,,0.00,Wunderground v.1.15,2013-05-18 15:58:00,
2013-05-18 10:59:00,74.5,64.5,29.99,South,175,5.0,9.0,71,0.00,,,0.00,Wunderground v.1.15,2013-05-18 15:59:00,
2013-05-18 11:02:00,74.6,65.0,29.99,SSW,192,5.0,6.0,72,0.00,,,0.00,Wunderground v.1.15,2013-05-18 16:02:00,
2013-05-18 11:04:00,74.7,64.7,29.99,South,185,5.0,6.0,71,0.00,,,0.00,Wunderground v.1.15,2013-05-18 16:04:00,
2013-05-18 11:05:00,74.7,64.7,29.99,South,181,4.0,6.0,71,0.00,,,0.00,Wunderground v.1.15,2013-05-18 16:05:00,
2013-05-18 11:06:00,74.7,64.7,29.99,SW,223,4.0,6.0,71,0.00,,,0.00,Wunderground v.1.15,2013-05-18 16:06:00,
2013-05-18 11:08:00,74.6,64.6,29.99,ESE,111,4.0,6.0,71,0.00,,,0.00,Wunderground v.1.15,2013-05-18 16:08:00,
2013-05-18 11:10:00,74.7,64.7,29.99,SE,140,4.0,5.0,71,0.00,,,0.00,Wunderground v.1.15,2013-05-18 16:10:00,
2013-05-18 11:13:00,74.7,64.7,29.99,SE,138,3.0,5.0,71,0.00,,,0.00,Wunderground v.1.15,2013-05-18 16:13:00,
2013-05-18 11:15:00,74.8,64.8,29.99,SE,135,3.0,5.0,71,0.00,,,0.00,Wunderground v.1.15,2013-05-18 16:15:00,
2013-05-18 11:19:00,75.1,65.1,29.99,SSE,166,3.0,6.0,71,0.00,,,0.00,Wunderground v.1.15,2013-05-18 16:19:00,
2013-05-18 11:20:00,75.2,64.7,29.99,SSE,161,3.0,3.0,70,0.00,,,0.00,Wunderground v.1.15,2013-05-18 16:20:00,
2013-05-18 11:22:00,75.2,64.7,29.99,SSE,158,4.0,6.0,70,0.00,,,0.00,Wunderground v.1.15,2013-05-18 16:22:00,
2013-05-18 11:23:00,75.2,64.7,29.99,South,186,4.0,12.0,70,0.00,,,0.00,Wunderground v.1.15,2013-05-18 16:23:00,
2013-05-18 11:26:00,75.1,64.6,29.99,South,180,5.0,12.0,70,0.00,,,0.00,Wunderground v.1.15,2013-05-18 16:26:00,
2013-05-18 11:28:00,75.1,64.6,29.99,South,188,5.0,12.0,70,0.00,,,0.00,Wunderground v.1.15,2013-05-18 16:28:00,
2013-05-18 11:30:00,75.0,64.1,29.98,South,175,5.0,5.0,69,0.00,,,0.00,Wunderground v.1.15,2013-05-18 16:30:00,
2013-05-18 11:31:00,75.1,64.6,29.98,South,175,5.0,5.0,70,0.00,,,0.00,Wunderground v.1.15,2013-05-18 16:31:00,
2013-05-18 11:32:00,75.1,64.2,29.98,SSE,155,5.0,5.0,69,0.00,,,0.00,Wunderground v.1.15,2013-05-18 16:32:00,
2013-05-18 11:33:00,75.1,63.8,29.98,SSE,161,5.0,5.0,68,0.00,,,0.00,Wunderground v.1.15,2013-05-18 16:33:00,
2013-05-18 11:36:00,75.0,63.7,29.99,South,178,4.0,6.0,68,0.00,,,0.00,Wunderground v.1.15,2013-05-18 16:36:00,
2013-05-18 11:37:00,75.0,63.7,29.99,South,188,4.0,6.0,68,0.00,,,0.00,Wunderground v.1.15,2013-05-18 16:37:00,
2013-05-18 11:38:00,75.0,64.1,29.99,South,179,4.0,6.0,69,0.00,,,0.00,Wunderground v.1.15,2013-05-18 16:38:00,
2013-05-18 11:39:00,74.9,63.2,29.98,South,175,4.0,6.0,67,0.00,,,0.00,Wunderground v.1.15,2013-05-18 16:39:00,
2013-05-18 11:43:00,74.9,64.0,29.98,SSE,165,4.0,5.0,69,0.00,,,0.00,Wunderground v.1.15,2013-05-18 16:43:00,
2013-05-18 11:45:00,75.0,64.1,29.98,SSE,161,4.0,6.0,69,0.00,,,0.00,Wunderground v.1.15,2013-05-18 16:45:00,
2013-05-18 11:47:00,75.1,63.8,29.98,SSE,167,4.0,6.0,68,0.00,,,0.00,Wunderground v.1.15,2013-05-18 16:47:00,
2013-05-18 11:49:00,75.3,64.0,29.98,South,180,4.0,6.0,68,0.00,,,0.00,Wunderground v.1.15,2013-05-18 16:49:00,
2013-05-18 11:50:00,75.4,64.1,29.98,South,178,4.0,7.0,68,0.00,,,0.00,Wunderground v.1.15,2013-05-18 16:50:00,
2013-05-18 11:53:00,75.5,63.8,29.98,SSE,163,5.0,7.0,67,0.00,,,0.00,Wunderground v.1.15,2013-05-18 16:53:00,
2013-05-18 11:54:00,75.5,63.8,29.98,ESE,123,5.0,7.0,67,0.00,,,0.00,Wunderground v.1.15,2013-05-18 16:54:00,
2013-05-18 11:55:00,75.5,64.6,29.98,SE,130,5.0,7.0,69,0.00,,,0.00,Wunderground v.1.15,2013-05-18 16:55:00,
2013-05-18 12:00:00,75.6,65.1,29.97,SSW,194,4.0,5.0,70,0.00,,,0.00,Wunderground v.1.15,2013-05-18 17:00:00,
2013-05-18 12:01:00,75.7,64.8,29.98,South,185,4.0,7.0,69,0.00,,,0.00,Wunderground v.1.15,2013-05-18 17:01:00,
2013-05-18 12:02:00,75.7,64.0,29.98,South,170,4.0,7.0,67,0.00,,,0.00,Wunderground v.1.15,2013-05-18 17:02:00,
2013-05-18 12:07:00,75.8,64.1,29.97,South,188,4.0,7.0,67,0.00,,,0.00,Wunderground v.1.15,2013-05-18 17:07:00,
2013-05-18 12:08:00,75.8,64.9,29.98,South,188,4.0,7.0,69,0.00,,,0.00,Wunderground v.1.15,2013-05-18 17:08:00,
2013-05-18 12:09:00,75.9,65.0,29.97,South,188,4.0,7.0,69,0.00,,,0.00,Wunderground v.1.15,2013-05-18 17:09:00,
2013-05-18 12:13:00,76.2,63.6,29.97,SSE,159,4.0,6.0,65,0.00,,,0.00,Wunderground v.1.15,2013-05-18 17:13:00,
2013-05-18 12:14:00,76.2,64.0,29.97,SSE,147,4.0,6.0,66,0.00,,,0.00,Wunderground v.1.15,2013-05-18 17:14:00,
2013-05-18 12:18:00,76.6,64.8,29.97,South,182,4.0,9.0,67,0.00,,,0.00,Wunderground v.1.15,2013-05-18 17:18:00,
2013-05-18 12:20:00,76.9,64.7,29.97,SSW,194,5.0,5.0,66,0.00,,,0.00,Wunderground v.1.15,2013-05-18 17:20:00,
2013-05-18 12:22:00,77.1,63.5,29.96,South,183,4.0,5.0,63,0.00,,,0.00,Wunderground v.1.15,2013-05-18 17:22:00,
2013-05-18 12:24:00,77.3,64.6,29.96,SSW,203,4.0,6.0,65,0.00,,,0.00,Wunderground v.1.15,2013-05-18 17:24:00,
2013-05-18 12:27:00,77.6,64.9,29.96,South,169,5.0,7.0,65,0.00,,,0.00,Wunderground v.1.15,2013-05-18 17:27:00,
2013-05-18 12:30:00,77.7,63.6,29.96,South,175,5.0,6.0,62,0.00,,,0.00,Wunderground v.1.15,2013-05-18 17:30:00,
2013-05-18 12:31:00,77.6,63.5,29.96,SSW,210,5.0,6.0,62,0.00,,,0.00,Wunderground v.1.15,2013-05-18 17:31:00,
2013-05-18 12:33:00,77.6,64.0,29.96,SSW,202,5.0,6.0,63,0.00,,,0.00,Wunderground v.1.15,2013-05-18 17:33:00,
2013-05-18 12:36:00,77.5,63.9,29.96,SSE,150,5.0,8.0,63,0.00,,,0.00,Wunderground v.1.15,2013-05-18 17:36:00,
2013-05-18 12:37:00,77.5,63.5,29.96,SE,142,6.0,8.0,62,0.00,,,0.00,Wunderground v.1.15,2013-05-18 17:37:00,
2013-05-18 12:38:00,77.5,63.5,29.96,South,190,6.0,8.0,62,0.00,,,0.00,Wunderground v.1.15,2013-05-18 17:38:00,
2013-05-18 12:41:00,77.4,63.8,29.96,SSE,163,5.0,5.0,63,0.00,,,0.00,Wunderground v.1.15,2013-05-18 17:41:00,
2013-05-18 12:43:00,77.4,63.8,29.96,SE,142,5.0,5.0,63,0.00,,,0.00,Wunderground v.1.15,2013-05-18 17:43:00,
2013-05-18 12:46:00,77.3,63.3,29.96,SSW,200,4.0,5.0,62,0.00,,,0.00,Wunderground v.1.15,2013-05-18 17:46:00,
2013-05-18 12:47:00,77.3,63.3,29.96,SSW,200,4.0,5.0,62,0.00,,,0.00,Wunderground v.1.15,2013-05-18 17:47:00,
2013-05-18 12:48:00,77.4,63.4,29.96,SSW,200,3.0,5.0,62,0.00,,,0.00,Wunderground v.1.15,2013-05-18 17:48:00,
2013-05-18 12:53:00,77.6,64.5,29.96,ESE,119,4.0,9.0,64,0.00,,,0.00,Wunderground v.1.15,2013-05-18 17:53:00,
2013-05-18 12:54:00,77.6,63.1,29.96,South,182,4.0,9.0,61,0.00,,,0.00,Wunderground v.1.15,2013-05-18 17:54:00,
2013-05-18 12:56:00,77.5,63.5,29.96,SSE,159,4.0,9.0,62,0.00,,,0.00,Wunderground v.1.15,2013-05-18 17:56:00,
2013-05-18 12:59:00,77.5,63.9,29.96,SE,137,4.0,9.0,63,0.00,,,0.00,Wunderground v.1.15,2013-05-18 17:59:00,
2013-05-18 13:01:00,77.4,64.3,29.96,South,172,4.0,9.0,64,0.00,,,0.00,Wunderground v.1.15,2013-05-18 18:01:00,
2013-05-18 13:04:00,77.4,64.7,29.96,SSE,159,4.0,9.0,65,0.00,,,0.00,Wunderground v.1.15,2013-05-18 18:04:00,
2013-05-18 13:05:00,77.5,64.4,29.96,South,174,3.0,9.0,64,0.00,,,0.00,Wunderground v.1.15,2013-05-18 18:05:00,
2013-05-18 13:07:00,77.5,63.9,29.96,SSW,196,4.0,9.0,63,0.00,,,0.00,Wunderground v.1.15,2013-05-18 18:07:00,
2013-05-18 13:09:00,77.5,63.9,29.96,SSW,202,4.0,9.0,63,0.00,,,0.00,Wunderground v.1.15,2013-05-18 18:09:00,
2013-05-18 13:10:00,77.6,64.5,29.96,South,186,4.0,4.0,64,0.00,,,0.00,Wunderground v.1.15,2013-05-18 18:10:00,
2013-05-18 13:12:00,77.7,64.5,29.96,SSE,157,3.0,7.0,64,0.00,,,0.00,Wunderground v.1.15,2013-05-18 18:12:00,
2013-05-18 13:14:00,77.6,63.5,29.96,SE,132,4.0,7.0,62,0.00,,,0.00,Wunderground v.1.15,2013-05-18 18:14:00,
2013-05-18 13:15:00,77.5,63.5,29.96,SSE,167,4.0,7.0,62,0.00,,,0.00,Wunderground v.1.15,2013-05-18 18:15:00,
2013-05-18 13:19:00,77.5,63.9,29.95,SE,144,3.0,7.0,63,0.00,,,0.00,Wunderground v.1.15,2013-05-18 18:19:00,
2013-05-18 13:20:00,77.6,64.5,29.95,SSE,159,3.0,3.0,64,0.00,,,0.00,Wunderground v.1.15,2013-05-18 18:20:00,
2013-05-18 13:21:00,77.8,65.5,29.95,SSE,161,3.0,3.0,66,0.00,,,0.00,Wunderground v.1.15,2013-05-18 18:21:00,
2013-05-18 13:22:00,77.9,65.6,29.95,SSE,160,3.0,4.0,66,0.00,,,0.00,Wunderground v.1.15,2013-05-18 18:22:00,
2013-05-18 13:24:00,78.1,64.5,29.95,South,179,3.0,5.0,63,0.00,,,0.00,Wunderground v.1.15,2013-05-18 18:24:00,
2013-05-18 13:26:00,78.5,66.2,29.95,SE,143,3.0,5.0,66,0.00,,,0.00,Wunderground v.1.15,2013-05-18 18:26:00,
2013-05-18 13:27:00,78.6,65.4,29.95,South,184,3.0,5.0,64,0.00,,,0.00,Wunderground v.1.15,2013-05-18 18:27:00,
2013-05-18 13:30:00,78.7,64.6,29.95,SE,146,4.0,4.0,62,0.00,,,0.00,Wunderground v.1.15,2013-05-18 18:30:00,
2013-05-18 13:31:00,78.8,64.2,29.95,SSW,207,4.0,7.0,61,0.00,,,0.00,Wunderground v.1.15,2013-05-18 18:31:00,
2013-05-18 13:33:00,78.8,63.7,29.95,SSE,166,5.0,7.0,60,0.00,,,0.00,Wunderground v.1.15,2013-05-18 18:33:00,
2013-05-18 13:35:00,78.8,65.6,29.95,SE,142,4.0,7.0,64,0.00,,,0.00,Wunderground v.1.15,2013-05-18 18:35:00,
2013-05-18 13:38:00,78.9,64.3,29.95,South,185,5.0,7.0,61,0.00,,,0.00,Wunderground v.1.15,2013-05-18 18:38:00,
2013-05-18 13:39:00,78.9,64.8,29.95,SSE,158,5.0,7.0,62,0.00,,,0.00,Wunderground v.1.15,2013-05-18 18:39:00,
2013-05-18 13:40:00,78.9,65.7,29.94,SE,136,5.0,5.0,64,0.00,,,0.00,Wunderground v.1.15,2013-05-18 18:40:00,
2013-05-18 13:41:00,78.9,64.3,29.94,SSE,162,5.0,6.0,61,0.00,,,0.00,Wunderground v.1.15,2013-05-18 18:41:00,
2013-05-18 13:44:00,79.0,64.4,29.94,WSW,243,5.0,6.0,61,0.00,,,0.00,Wunderground v.1.15,2013-05-18 18:44:00,
2013-05-18 13:46:00,79.0,64.9,29.94,South,182,5.0,6.0,62,0.00,,,0.00,Wunderground v.1.15,2013-05-18 18:46:00,
2013-05-18 13:48:00,79.2,65.5,29.94,South,172,5.0,6.0,63,0.00,,,0.00,Wunderground v.1.15,2013-05-18 18:48:00,
2013-05-18 13:49:00,79.2,65.1,29.94,South,171,5.0,6.0,62,0.00,,,0.00,Wunderground v.1.15,2013-05-18 18:49:00,
2013-05-18 13:51:00,79.2,64.1,29.94,South,180,5.0,5.0,60,0.00,,,0.00,Wunderground v.1.15,2013-05-18 18:51:00,
2013-05-18 13:52:00,79.2,64.1,29.94,SSE,163,5.0,8.0,60,0.00,,,0.00,Wunderground v.1.15,2013-05-18 18:52:00,
2013-05-18 13:55:00,79.3,64.2,29.94,South,182,6.0,8.0,60,0.00,,,0.00,Wunderground v.1.15,2013-05-18 18:55:00,
2013-05-18 13:57:00,79.3,63.7,29.94,South,175,5.0,8.0,59,0.00,,,0.00,Wunderground v.1.15,2013-05-18 18:57:00,
2013-05-18 13:59:00,79.3,63.7,29.94,SSE,159,5.0,8.0,59,0.00,,,0.00,Wunderground v.1.15,2013-05-18 18:59:00,
2013-05-18 14:00:00,79.2,63.6,29.94,SSE,150,5.0,5.0,59,0.00,,,0.00,Wunderground v.1.15,2013-05-18 19:00:00,
2013-05-18 14:04:00,79.0,63.9,29.94,ESE,107,4.0,5.0,60,0.00,,,0.00,Wunderground v.1.15,2013-05-18 19:04:00,
2013-05-18 14:05:00,79.0,65.3,29.94,ESE,123,4.0,5.0,63,0.00,,,0.00,Wunderground v.1.15,2013-05-18 19:05:00,
2013-05-18 14:09:00,79.3,64.7,29.93,SE,143,3.0,5.0,61,0.00,,,0.00,Wunderground v.1.15,2013-05-18 19:09:00,
2013-05-18 14:13:00,79.3,64.2,29.93,ESE,119,4.0,7.0,60,0.00,,,0.00,Wunderground v.1.15,2013-05-18 19:13:00,
2013-05-18 14:14:00,79.3,64.2,29.93,SE,140,3.0,7.0,60,0.00,,,0.00,Wunderground v.1.15,2013-05-18 19:14:00,
2013-05-18 14:16:00,79.3,63.7,29.93,SSE,151,3.0,7.0,59,0.00,,,0.00,Wunderground v.1.15,2013-05-18 19:16:00,
2013-05-18 14:17:00,79.3,63.7,29.93,SSE,149,3.0,7.0,59,0.00,,,0.00,Wunderground v.1.15,2013-05-18 19:17:00,
2013-05-18 14:18:00,79.2,63.6,29.93,South,177,4.0,7.0,59,0.00,,,0.00,Wunderground v.1.15,2013-05-18 19:18:00,
2013-05-18 14:21:00,79.2,65.5,29.93,SSW,192,3.0,4.0,63,0.00,,,0.00,Wunderground v.1.15,2013-05-18 19:21:00,
2013-05-18 14:23:00,79.2,63.6,29.93,South,173,3.0,4.0,59,0.00,,,0.00,Wunderground v.1.15,2013-05-18 19:23:00,
2013-05-18 14:25:00,79.3,65.1,29.93,South,189,3.0,13.0,62,0.00,,,0.00,Wunderground v.1.15,2013-05-18 19:25:00,
2013-05-18 14:28:00,79.4,63.3,29.93,SSW,194,4.0,13.0,58,0.00,,,0.00,Wunderground v.1.15,2013-05-18 19:28:00,
2013-05-18 14:30:00,79.5,63.9,29.93,SSW,196,4.0,4.0,59,0.00,,,0.00,Wunderground v.1.15,2013-05-18 19:30:00,
2013-05-18 14:32:00,79.6,64.5,29.93,SE,140,4.0,4.0,60,0.00,,,0.00,Wunderground v.1.15,2013-05-18 19:32:00,
2013-05-18 14:33:00,79.6,65.0,29.93,SSE,150,4.0,4.0,61,0.00,,,0.00,Wunderground v.1.15,2013-05-18 19:33:00,
2013-05-18 14:35:00,79.8,64.7,29.93,ESE,120,4.0,6.0,60,0.00,,,0.00,Wunderground v.1.15,2013-05-18 19:35:00,
2013-05-18 14:38:00,79.9,64.8,29.93,SE,134,3.0,6.0,60,0.00,,,0.00,Wunderground v.1.15,2013-05-18 19:38:00,
2013-05-18 14:39:00,80.0,63.9,29.93,SE,134,3.0,6.0,58,0.00,,,0.00,Wunderground v.1.15,2013-05-18 19:39:00,
2013-05-18 14:41:00,80.0,64.4,29.93,SSW,201,4.0,4.0,59,0.00,,,0.00,Wunderground v.1.15,2013-05-18 19:41:00,
2013-05-18 14:42:00,80.0,65.3,29.93,SSW,196,3.0,4.0,61,0.00,,,0.00,Wunderground v.1.15,2013-05-18 19:42:00,
2013-05-18 14:43:00,80.1,64.5,29.93,SE,140,3.0,4.0,59,0.00,,,0.00,Wunderground v.1.15,2013-05-18 19:43:00,
2013-05-18 14:44:00,80.2,64.6,29.93,ESE,110,3.0,4.0,59,0.00,,,0.00,Wunderground v.1.15,2013-05-18 19:44:00,
2013-05-18 14:45:00,80.2,64.6,29.93,ESE,106,4.0,5.0,59,0.00,,,0.00,Wunderground v.1.15,2013-05-18 19:45:00,
2013-05-18 14:49:00,80.0,64.4,29.92,South,190,4.0,5.0,59,0.00,,,0.00,Wunderground v.1.15,2013-05-18 19:49:00,
2013-05-18 14:50:00,80.0,63.9,29.92,South,189,4.0,4.0,58,0.00,,,0.00,Wunderground v.1.15,2013-05-18 19:50:00,
2013-05-18 14:51:00,79.9,63.3,29.92,South,186,4.0,4.0,57,0.00,,,0.00,Wunderground v.1.15,2013-05-18 19:51:00,
2013-05-18 14:53:00,79.8,63.7,29.92,South,184,3.0,4.0,58,0.00,,,0.00,Wunderground v.1.15,2013-05-18 19:53:00,
2013-05-18 14:55:00,79.7,63.1,29.92,South,183,3.0,4.0,57,0.00,,,0.00,Wunderground v.1.15,2013-05-18 19:55:00,
2013-05-18 14:59:00,79.4,63.3,29.92,South,175,3.0,4.0,58,0.00,,,0.00,Wunderground v.1.15,2013-05-18 19:59:00,
2013-05-18 15:00:00,79.4,63.3,29.92,South,175,3.0,3.0,58,0.00,,,0.00,Wunderground v.1.15,2013-05-18 20:00:00,
2013-05-18 15:01:00,79.4,63.8,29.92,South,175,2.0,3.0,59,0.00,,,0.00,Wunderground v.1.15,2013-05-18 20:01:00,
2013-05-18 15:02:00,79.4,64.8,29.92,South,171,2.0,3.0,61,0.00,,,0.00,Wunderground v.1.15,2013-05-18 20:02:00,
2013-05-18 15:03:00,79.4,63.8,29.92,South,175,2.0,5.0,59,0.00,,,0.00,Wunderground v.1.15,2013-05-18 20:03:00,
2013-05-18 15:06:00,79.3,63.2,29.92,South,183,3.0,5.0,58,0.00,,,0.00,Wunderground v.1.15,2013-05-18 20:06:00,
2013-05-18 15:08:00,79.3,63.2,29.92,South,177,3.0,5.0,58,0.00,,,0.00,Wunderground v.1.15,2013-05-18 20:08:00,
2013-05-18 15:10:00,79.2,63.1,29.92,South,185,4.0,10.0,58,0.00,,,0.00,Wunderground v.1.15,2013-05-18 20:10:00,
2013-05-18 15:13:00,79.2,64.1,29.92,South,182,4.0,10.0,60,0.00,,,0.00,Wunderground v.1.15,2013-05-18 20:13:00,
2013-05-18 15:14:00,79.3,63.7,29.92,SE,130,4.0,10.0,59,0.00,,,0.00,Wunderground v.1.15,2013-05-18 20:14:00,
2013-05-18 15:16:00,79.3,63.2,29.92,South,180,4.0,10.0,58,0.00,,,0.00,Wunderground v.1.15,2013-05-18 20:16:00,
2013-05-18 15:18:00,79.2,63.6,29.92,SSW,194,4.0,10.0,59,0.00,,,0.00,Wunderground v.1.15,2013-05-18 20:18:00,
2013-05-18 15:19:00,79.3,63.7,29.92,SSE,148,4.0,10.0,59,0.00,,,0.00,Wunderground v.1.15,2013-05-18 20:19:00,
2013-05-18 15:20:00,79.3,63.2,29.92,ESE,121,4.0,4.0,58,0.00,,,0.00,Wunderground v.1.15,2013-05-18 20:20:00,
2013-05-18 15:21:00,79.3,64.7,29.92,ESE,119,3.0,6.0,61,0.00,,,0.00,Wunderground v.1.15,2013-05-18 20:21:00,
2013-05-18 15:25:00,79.1,63.5,29.92,South,173,4.0,9.0,59,0.00,,,0.00,Wunderground v.1.15,2013-05-18 20:25:00,
2013-05-18 15:27:00,79.0,62.5,29.92,South,173,5.0,10.0,57,0.00,,,0.00,Wunderground v.1.15,2013-05-18 20:27:00,
2013-05-18 15:28:00,79.0,63.0,29.92,SE,139,5.0,10.0,58,0.00,,,0.00,Wunderground v.1.15,2013-05-18 20:28:00,
2013-05-18 15:32:00,79.0,62.5,29.92,South,176,5.0,6.0,57,0.00,,,0.00,Wunderground v.1.15,2013-05-18 20:32:00,
2013-05-18 15:33:00,79.1,63.1,29.92,South,186,5.0,6.0,58,0.00,,,0.00,Wunderground v.1.15,2013-05-18 20:33:00,
2013-05-18 15:34:00,79.1,63.1,29.92,SSE,155,4.0,6.0,58,0.00,,,0.00,Wunderground v.1.15,2013-05-18 20:34:00,
2013-05-18 15:38:00,79.4,62.8,29.92,South,177,4.0,7.0,57,0.00,,,0.00,Wunderground v.1.15,2013-05-18 20:38:00,
2013-05-18 15:40:00,79.5,63.4,29.92,ENE,78,4.0,4.0,58,0.00,,,0.00,Wunderground v.1.15,2013-05-18 20:40:00,
2013-05-18 15:41:00,79.6,65.0,29.92,SSE,154,4.0,4.0,61,0.00,,,0.00,Wunderground v.1.15,2013-05-18 20:41:00,
2013-05-18 15:42:00,79.7,65.1,29.92,SSE,154,4.0,4.0,61,0.00,,,0.00,Wunderground v.1.15,2013-05-18 20:42:00,
2013-05-18 15:44:00,79.8,62.7,29.92,SSE,159,3.0,4.0,56,0.00,,,0.00,Wunderground v.1.15,2013-05-18 20:44:00,
2013-05-18 15:46:00,80.0,63.9,29.92,SSW,207,3.0,4.0,58,0.00,,,0.00,Wunderground v.1.15,2013-05-18 20:46:00,
2013-05-18 15:47:00,80.0,64.9,29.91,SSW,203,3.0,4.0,60,0.00,,,0.00,Wunderground v.1.15,2013-05-18 20:47:00,
2013-05-18 15:49:00,80.2,63.6,29.91,SSE,163,3.0,5.0,57,0.00,,,0.00,Wunderground v.1.15,2013-05-18 20:49:00,
2013-05-18 15:50:00,80.3,64.2,29.91,South,173,3.0,6.0,58,0.00,,,0.00,Wunderground v.1.15,2013-05-18 20:50:00,
2013-05-18 15:52:00,80.4,63.8,29.91,South,180,3.0,6.0,57,0.00,,,0.00,Wunderground v.1.15,2013-05-18 20:52:00,
2013-05-18 15:53:00,80.5,64.4,29.91,SW,219,4.0,6.0,58,0.00,,,0.00,Wunderground v.1.15,2013-05-18 20:53:00,
2013-05-18 15:55:00,80.5,63.9,29.91,SSE,159,4.0,6.0,57,0.00,,,0.00,Wunderground v.1.15,2013-05-18 20:55:00,
2013-05-18 15:57:00,80.5,64.4,29.91,SE,132,4.0,9.0,58,0.00,,,0.00,Wunderground v.1.15,2013-05-18 20:57:00,
2013-05-18 15:58:00,80.4,63.3,29.91,SE,136,4.0,9.0,56,0.00,,,0.00,Wunderground v.1.15,2013-05-18 20:58:00,
2013-05-18 16:01:00,80.1,64.0,29.91,SE,145,4.0,7.0,58,0.00,,,0.00,Wunderground v.1.15,2013-05-18 21:01:00,
2013-05-18 16:02:00,80.0,63.9,29.91,SE,146,4.0,7.0,58,0.00,,,0.00,Wunderground v.1.15,2013-05-18 21:02:00,
2013-05-18 16:03:00,80.0,63.4,29.91,SSE,158,4.0,7.0,57,0.00,,,0.00,Wunderground v.1.15,2013-05-18 21:03:00,
2013-05-18 16:06:00,79.9,64.3,29.91,South,173,3.0,7.0,59,0.00,,,0.00,Wunderground v.1.15,2013-05-18 21:06:00,
2013-05-18 16:07:00,80.0,64.4,29.91,South,172,3.0,7.0,59,0.00,,,0.00,Wunderground v.1.15,2013-05-18 21:07:00,
2013-05-18 16:08:00,80.0,65.3,29.91,SE,136,3.0,7.0,61,0.00,,,0.00,Wunderground v.1.15,2013-05-18 21:08:00,
2013-05-18 16:10:00,80.1,64.0,29.91,SE,128,3.0,3.0,58,0.00,,,0.00,Wunderground v.1.15,2013-05-18 21:10:00,
2013-05-18 16:11:00,80.1,63.5,29.91,South,178,3.0,9.0,57,0.00,,,0.00,Wunderground v.1.15,2013-05-18 21:11:00,
2013-05-18 16:12:00,80.2,64.1,29.91,SSE,162,3.0,9.0,58,0.00,,,0.00,Wunderground v.1.15,2013-05-18 21:12:00,
2013-05-18 16:16:00,80.2,64.1,29.91,SE,134,4.0,9.0,58,0.00,,,0.00,Wunderground v.1.15,2013-05-18 21:16:00,
2013-05-18 16:17:00,80.2,64.1,29.91,SSE,153,4.0,9.0,58,0.00,,,0.00,Wunderground v.1.15,2013-05-18 21:17:00,
2013-05-18 16:18:00,80.1,63.5,29.91,SE,139,5.0,9.0,57,0.00,,,0.00,Wunderground v.1.15,2013-05-18 21:18:00,
2013-05-18 16:20:00,80.0,63.9,29.91,SSE,153,5.0,5.0,58,0.00,,,0.00,Wunderground v.1.15,2013-05-18 21:20:00,
2013-05-18 16:23:00,79.9,63.3,29.91,SSE,153,5.0,5.0,57,0.00,,,0.00,Wunderground v.1.15,2013-05-18 21:23:00,
2013-05-18 16:24:00,79.8,64.7,29.91,SSE,159,4.0,5.0,60,0.00,,,0.00,Wunderground v.1.15,2013-05-18 21:24:00,
2013-05-18 16:27:00,79.8,63.2,29.91,SSW,193,4.0,5.0,57,0.00,,,0.00,Wunderground v.1.15,2013-05-18 21:27:00,
2013-05-18 16:28:00,79.8,63.2,29.91,SSW,198,4.0,5.0,57,0.00,,,0.00,Wunderground v.1.15,2013-05-18 21:28:00,
2013-05-18 16:31:00,79.7,63.6,29.90,South,171,4.0,4.0,58,0.00,,,0.00,Wunderground v.1.15,2013-05-18 21:31:00,
2013-05-18 16:33:00,79.6,63.5,29.91,South,171,3.0,4.0,58,0.00,,,0.00,Wunderground v.1.15,2013-05-18 21:33:00,
2013-05-18 16:34:00,79.6,63.5,29.91,South,171,3.0,4.0,58,0.00,,,0.00,Wunderground v.1.15,2013-05-18 21:34:00,
2013-05-18 16:35:00,79.6,63.5,29.90,SSE,163,3.0,7.0,58,0.00,,,0.00,Wunderground v.1.15,2013-05-18 21:35:00,
2013-05-18 16:38:00,79.6,63.5,29.91,SE,140,3.0,7.0,58,0.00,,,0.00,Wunderground v.1.15,2013-05-18 21:38:00,
2013-05-18 16:39:00,79.7,63.6,29.90,South,177,4.0,7.0,58,0.00,,,0.00,Wunderground v.1.15,2013-05-18 21:39:00,
2013-05-18 16:41:00,79.7,64.1,29.90,South,171,3.0,3.0,59,0.00,,,0.00,Wunderground v.1.15,2013-05-18 21:41:00,
2013-05-18 16:42:00,79.7,63.6,29.90,SSE,167,3.0,3.0,58,0.00,,,0.00,Wunderground v.1.15,2013-05-18 21:42:00,
2013-05-18 16:43:00,79.7,64.1,29.90,South,184,3.0,3.0,59,0.00,,,0.00,Wunderground v.1.15,2013-05-18 21:43:00,
2013-05-18 16:45:00,79.7,63.6,29.90,South,189,4.0,6.0,58,0.00,,,0.00,Wunderground v.1.15,2013-05-18 21:45:00,
2013-05-18 16:47:00,79.7,63.6,29.91,South,172,4.0,6.0,58,0.00,,,0.00,Wunderground v.1.15,2013-05-18 21:47:00,
2013-05-18 16:50:00,79.8,63.2,29.90,SSE,164,4.0,4.0,57,0.00,,,0.00,Wunderground v.1.15,2013-05-18 21:50:00,
2013-05-18 16:51:00,79.8,63.7,29.90,SSE,156,4.0,4.0,58,0.00,,,0.00,Wunderground v.1.15,2013-05-18 21:51:00,
2013-05-18 16:55:00,80.0,63.4,29.90,SE,146,5.0,5.0,57,0.00,,,0.00,Wunderground v.1.15,2013-05-18 21:55:00,
2013-05-18 16:57:00,80.1,63.5,29.90,SSE,148,4.0,5.0,57,0.00,,,0.00,Wunderground v.1.15,2013-05-18 21:57:00,
2013-05-18 16:58:00,80.2,63.6,29.90,SSE,165,4.0,5.0,57,0.00,,,0.00,Wunderground v.1.15,2013-05-18 21:58:00,
2013-05-18 16:59:00,80.2,63.6,29.90,SSW,202,3.0,5.0,57,0.00,,,0.00,Wunderground v.1.15,2013-05-18 21:59:00,
2013-05-18 17:00:00,80.3,63.7,29.90,SSE,168,3.0,3.0,57,0.00,,,0.00,Wunderground v.1.15,2013-05-18 22:00:00,
2013-05-18 17:02:00,80.4,62.8,29.90,SE,126,4.0,10.0,55,0.00,,,0.00,Wunderground v.1.15,2013-05-18 22:02:00,
2013-05-18 17:03:00,80.4,63.3,29.90,South,186,4.0,10.0,56,0.00,,,0.00,Wunderground v.1.15,2013-05-18 22:03:00,
2013-05-18 17:04:00,80.4,64.3,29.90,SE,141,4.0,10.0,58,0.00,,,0.00,Wunderground v.1.15,2013-05-18 22:04:00,
2013-05-18 17:07:00,80.5,63.4,29.90,SSE,168,5.0,10.0,56,0.00,,,0.00,Wunderground v.1.15,2013-05-18 22:07:00,
2013-05-18 17:10:00,80.7,64.1,29.89,SSE,155,5.0,5.0,57,0.00,,,0.00,Wunderground v.1.15,2013-05-18 22:10:00,
2013-05-18 17:11:00,80.7,63.5,29.89,SE,137,4.0,5.0,56,0.00,,,0.00,Wunderground v.1.15,2013-05-18 22:11:00,
2013-05-18 17:14:00,80.8,63.6,29.89,SSE,149,4.0,7.0,56,0.00,,,0.00,Wunderground v.1.15,2013-05-18 22:14:00,
2013-05-18 17:15:00,80.9,63.7,29.89,South,179,4.0,7.0,56,0.00,,,0.00,Wunderground v.1.15,2013-05-18 22:15:00,
2013-05-18 17:16:00,80.9,63.7,29.89,SE,132,4.0,7.0,56,0.00,,,0.00,Wunderground v.1.15,2013-05-18 22:16:00,
2013-05-18 17:18:00,80.9,64.2,29.90,SSE,147,4.0,7.0,57,0.00,,,0.00,Wunderground v.1.15,2013-05-18 22:18:00,
2013-05-18 17:21:00,80.9,62.2,29.90,South,184,5.0,7.0,53,0.00,,,0.00,Wunderground v.1.15,2013-05-18 22:21:00,
2013-05-18 17:22:00,80.9,62.2,29.89,SE,140,5.0,7.0,53,0.00,,,0.00,Wunderground v.1.15,2013-05-18 22:22:00,
2013-05-18 17:24:00,80.8,62.6,29.89,SSE,154,5.0,7.0,54,0.00,,,0.00,Wunderground v.1.15,2013-05-18 22:24:00,
2013-05-18 17:25:00,80.8,63.6,29.89,SSE,161,5.0,7.0,56,0.00,,,0.00,Wunderground v.1.15,2013-05-18 22:25:00,
2013-05-18 17:26:00,80.8,62.6,29.90,SSE,161,4.0,7.0,54,0.00,,,0.00,Wunderground v.1.15,2013-05-18 22:26:00,
2013-05-18 17:29:00,80.8,62.6,29.89,SSE,164,4.0,7.0,54,0.00,,,0.00,Wunderground v.1.15,2013-05-18 22:29:00,
2013-05-18 17:30:00,80.8,63.1,29.90,South,173,4.0,4.0,55,0.00,,,0.00,Wunderground v.1.15,2013-05-18 22:30:00,
2013-05-18 17:31:00,80.9,64.2,29.89,SSW,213,4.0,4.0,57,0.00,,,0.00,Wunderground v.1.15,2013-05-18 22:31:00,
2013-05-18 17:32:00,80.9,64.2,29.90,SSW,212,3.0,4.0,57,0.00,,,0.00,Wunderground v.1.15,2013-05-18 22:32:00,
2013-05-18 17:33:00,80.9,63.7,29.89,SSW,212,3.0,8.0,56,0.00,,,0.00,Wunderground v.1.15,2013-05-18 22:33:00,
2013-05-18 17:37:00,81.1,63.9,29.89,South,185,3.0,8.0,56,0.00,,,0.00,Wunderground v.1.15,2013-05-18 22:37:00,
2013-05-18 17:39:00,81.1,63.9,29.89,South,178,3.0,8.0,56,0.00,,,0.00,Wunderground v.1.15,2013-05-18 22:39:00,
2013-05-18 17:40:00,81.1,63.4,29.89,South,178,3.0,3.0,55,0.00,,,0.00,Wunderground v.1.15,2013-05-18 22:40:00,
2013-05-18 17:41:00,81.2,63.5,29.89,SSE,150,3.0,3.0,55,0.00,,,0.00,Wunderground v.1.15,2013-05-18 22:41:00,
2013-05-18 17:46:00,81.3,62.5,29.89,SSW,198,3.0,14.0,53,0.00,,,0.00,Wunderground v.1.15,2013-05-18 22:46:00,
2013-05-18 17:47:00,81.3,62.5,29.89,SSW,211,4.0,14.0,53,0.00,,,0.00,Wunderground v.1.15,2013-05-18 22:47:00,
2013-05-18 17:49:00,81.3,64.1,29.89,SW,225,4.0,14.0,56,0.00,,,0.00,Wunderground v.1.15,2013-05-18 22:49:00,
2013-05-18 17:52:00,81.2,63.0,29.89,South,180,5.0,6.0,54,0.00,,,0.00,Wunderground v.1.15,2013-05-18 22:52:00,
2013-05-18 17:53:00,81.2,62.4,29.89,South,179,5.0,6.0,53,0.00,,,0.00,Wunderground v.1.15,2013-05-18 22:53:00,
2013-05-18 17:55:00,81.2,62.4,29.89,SE,136,5.0,6.0,53,0.00,,,0.00,Wunderground v.1.15,2013-05-18 22:55:00,
2013-05-18 17:56:00,81.2,63.0,29.89,SSE,158,5.0,6.0,54,0.00,,,0.00,Wunderground v.1.15,2013-05-18 22:56:00,
2013-05-18 17:57:00,81.2,63.0,29.89,SSE,167,4.0,6.0,54,0.00,,,0.00,Wunderground v.1.15,2013-05-18 22:57:00,
2013-05-18 18:00:00,81.2,64.0,29.89,SSW,192,3.0,4.0,56,0.00,,,0.00,Wunderground v.1.15,2013-05-18 23:00:00,
2013-05-18 18:01:00,81.3,63.1,29.89,SE,126,3.0,5.0,54,0.00,,,0.00,Wunderground v.1.15,2013-05-18 23:01:00,
2013-05-18 18:02:00,81.3,63.1,29.89,SSE,148,3.0,5.0,54,0.00,,,0.00,Wunderground v.1.15,2013-05-18 23:02:00,
2013-05-18 18:03:00,81.3,63.1,29.89,South,173,3.0,5.0,54,0.00,,,0.00,Wunderground v.1.15,2013-05-18 23:03:00,
2013-05-18 18:05:00,81.4,63.2,29.89,SE,138,3.0,5.0,54,0.00,,,0.00,Wunderground v.1.15,2013-05-18 23:05:00,
2013-05-18 18:08:00,81.3,62.5,29.89,SSE,159,3.0,6.0,53,0.00,,,0.00,Wunderground v.1.15,2013-05-18 23:08:00,
2013-05-18 18:09:00,81.3,63.1,29.89,SSE,161,3.0,6.0,54,0.00,,,0.00,Wunderground v.1.15,2013-05-18 23:09:00,
2013-05-18 18:11:00,81.2,62.4,29.89,South,182,4.0,6.0,53,0.00,,,0.00,Wunderground v.1.15,2013-05-18 23:11:00,
2013-05-18 18:13:00,81.2,63.5,29.89,South,178,4.0,6.0,55,0.00,,,0.00,Wunderground v.1.15,2013-05-18 23:13:00,
2013-05-18 18:16:00,81.1,62.3,29.89,SSE,165,5.0,9.0,53,0.00,,,0.00,Wunderground v.1.15,2013-05-18 23:16:00,
2013-05-18 18:17:00,81.0,62.3,29.89,South,169,5.0,10.0,53,0.00,,,0.00,Wunderground v.1.15,2013-05-18 23:17:00,
2013-05-18 18:18:00,81.0,62.3,29.89,SSW,192,5.0,10.0,53,0.00,,,0.00,Wunderground v.1.15,2013-05-18 23:18:00,
2013-05-18 18:21:00,80.9,62.2,29.89,SSE,156,4.0,5.0,53,0.00,,,0.00,Wunderground v.1.15,2013-05-18 23:21:00,
2013-05-18 18:23:00,80.8,62.1,29.89,South,178,4.0,6.0,53,0.00,,,0.00,Wunderground v.1.15,2013-05-18 23:23:00,
2013-05-18 18:26:00,80.6,62.4,29.89,SSE,153,4.0,6.0,54,0.00,,,0.00,Wunderground v.1.15,2013-05-18 23:26:00,
2013-05-18 18:28:00,80.4,62.2,29.89,ESE,123,4.0,7.0,54,0.00,,,0.00,Wunderground v.1.15,2013-05-18 23:28:00,
2013-05-18 18:30:00,80.3,62.7,29.89,SE,134,4.0,4.0,55,0.00,,,0.00,Wunderground v.1.15,2013-05-18 23:30:00,
2013-05-18 18:32:00,80.1,62.0,29.89,SSE,153,3.0,4.0,54,0.00,,,0.00,Wunderground v.1.15,2013-05-18 23:32:00,
2013-05-18 18:36:00,79.7,62.6,29.89,SSE,162,3.0,5.0,56,0.00,,,0.00,Wunderground v.1.15,2013-05-18 23:36:00,
2013-05-18 18:37:00,79.7,62.6,29.89,SSE,163,3.0,5.0,56,0.00,,,0.00,Wunderground v.1.15,2013-05-18 23:37:00,
2013-05-18 18:39:00,79.6,62.5,29.89,SSW,193,3.0,5.0,56,0.00,,,0.00,Wunderground v.1.15,2013-05-18 23:39:00,
2013-05-18 18:40:00,79.5,62.4,29.89,South,180,3.0,7.0,56,0.00,,,0.00,Wunderground v.1.15,2013-05-18 23:40:00,
2013-05-18 18:41:00,79.4,62.3,29.89,South,169,3.0,7.0,56,0.00,,,0.00,Wunderground v.1.15,2013-05-18 23:41:00,
2013-05-18 18:44:00,79.3,62.2,29.89,SSW,196,3.0,7.0,56,0.00,,,0.00,Wunderground v.1.15,2013-05-18 23:44:00,
2013-05-18 18:45:00,79.3,62.2,29.89,South,190,3.0,7.0,56,0.00,,,0.00,Wunderground v.1.15,2013-05-18 23:45:00,
2013-05-18 18:47:00,79.2,62.1,29.89,SSW,193,3.0,7.0,56,0.00,,,0.00,Wunderground v.1.15,2013-05-18 23:47:00,
2013-05-18 18:49:00,79.1,62.6,29.89,South,182,4.0,7.0,57,0.00,,,0.00,Wunderground v.1.15,2013-05-18 23:49:00,
2013-05-18 18:50:00,79.1,62.1,29.89,South,170,4.0,4.0,56,0.00,,,0.00,Wunderground v.1.15,2013-05-18 23:50:00,
2013-05-18 18:53:00,79.0,63.0,29.89,SSW,193,4.0,5.0,58,0.00,,,0.00,Wunderground v.1.15,2013-05-18 23:53:00,
2013-05-18 18:54:00,79.0,62.5,29.89,SSE,168,4.0,5.0,57,0.00,,,0.00,Wunderground v.1.15,2013-05-18 23:54:00,
2013-05-18 18:56:00,78.9,62.9,29.89,South,174,4.0,5.0,58,0.00,,,0.00,Wunderground v.1.15,2013-05-18 23:56:00,
2013-05-18 18:57:00,78.9,62.9,29.89,South,177,3.0,6.0,58,0.00,,,0.00,Wunderground v.1.15,2013-05-18 23:57:00,
2013-05-18 18:58:00,78.9,62.9,29.89,South,173,3.0,6.0,58,0.00,,,0.00,Wunderground v.1.15,2013-05-18 23:58:00,
2013-05-18 18:59:00,78.9,62.9,29.89,South,171,3.0,6.0,58,0.00,,,0.00,Wunderground v.1.15,2013-05-18 23:59:00,
2013-05-18 19:02:00,78.8,62.8,29.89,SSE,155,3.0,5.0,58,0.00,,,0.00,Wunderground v.1.15,2013-05-19 00:02:00,
2013-05-18 19:04:00,78.7,62.7,29.89,South,171,2.0,5.0,58,0.00,,,0.00,Wunderground v.1.15,2013-05-19 00:04:00,
2013-05-18 19:08:00,78.7,63.2,29.88,South,169,3.0,5.0,59,0.00,,,0.00,Wunderground v.1.15,2013-05-19 00:08:00,
2013-05-18 19:09:00,78.7,62.7,29.89,South,169,3.0,5.0,58,0.00,,,0.00,Wunderground v.1.15,2013-05-19 00:09:00,
2013-05-18 19:10:00,78.7,62.7,29.88,South,169,3.0,3.0,58,0.00,,,0.00,Wunderground v.1.15,2013-05-19 00:10:00,
2013-05-18 19:14:00,78.5,62.5,29.89,South,186,4.0,6.0,58,0.00,,,0.00,Wunderground v.1.15,2013-05-19 00:14:00,
2013-05-18 19:15:00,78.5,62.5,29.89,South,189,4.0,6.0,58,0.00,,,0.00,Wunderground v.1.15,2013-05-19 00:15:00,
2013-05-18 19:16:00,78.5,63.0,29.89,South,188,4.0,6.0,59,0.00,,,0.00,Wunderground v.1.15,2013-05-19 00:16:00,
2013-05-18 19:17:00,78.5,62.5,29.89,SSW,199,4.0,10.0,58,0.00,,,0.00,Wunderground v.1.15,2013-05-19 00:17:00,
2013-05-18 19:19:00,78.4,62.4,29.89,South,171,5.0,10.0,58,0.00,,,0.00,Wunderground v.1.15,2013-05-19 00:19:00,
2013-05-18 19:20:00,78.4,62.4,29.89,South,170,5.0,5.0,58,0.00,,,0.00,Wunderground v.1.15,2013-05-19 00:20:00,
2013-05-18 19:21:00,78.3,62.8,29.89,SSE,167,5.0,5.0,59,0.00,,,0.00,Wunderground v.1.15,2013-05-19 00:21:00,
2013-05-18 19:25:00,78.1,62.6,29.89,SSE,166,4.0,5.0,59,0.00,,,0.00,Wunderground v.1.15,2013-05-19 00:25:00,
2013-05-18 19:26:00,78.1,62.6,29.88,SSW,192,4.0,6.0,59,0.00,,,0.00,Wunderground v.1.15,2013-05-19 00:26:00,
2013-05-18 19:28:00,78.0,62.5,29.88,South,185,4.0,6.0,59,0.00,,,0.00,Wunderground v.1.15,2013-05-19 00:28:00,
2013-05-18 19:29:00,77.9,62.4,29.89,SSW,202,4.0,6.0,59,0.00,,,0.00,Wunderground v.1.15,2013-05-19 00:29:00,
2013-05-18 19:30:00,77.8,62.3,29.89,SSE,163,4.0,6.0,59,0.00,,,0.00,Wunderground v.1.15,2013-05-19 00:30:00,
2013-05-18 19:31:00,77.8,62.3,29.89,SE,140,4.0,6.0,59,0.00,,,0.00,Wunderground v.1.15,2013-05-19 00:31:00,
2013-05-18 19:35:00,77.6,62.1,29.89,South,176,4.0,9.0,59,0.00,,,0.00,Wunderground v.1.15,2013-05-19 00:35:00,
2013-05-18 19:36:00,77.6,62.6,29.89,South,169,4.0,9.0,60,0.00,,,0.00,Wunderground v.1.15,2013-05-19 00:36:00,
2013-05-18 19:39:00,77.5,62.5,29.88,SSE,157,4.0,9.0,60,0.00,,,0.00,Wunderground v.1.15,2013-05-19 00:39:00,
2013-05-18 19:41:00,77.4,62.4,29.88,SSE,160,4.0,4.0,60,0.00,,,0.00,Wunderground v.1.15,2013-05-19 00:41:00,
2013-05-18 19:42:00,77.3,62.3,29.88,SSE,160,3.0,4.0,60,0.00,,,0.00,Wunderground v.1.15,2013-05-19 00:42:00,
2013-05-18 19:44:00,77.2,62.2,29.88,South,175,3.0,4.0,60,0.00,,,0.00,Wunderground v.1.15,2013-05-19 00:44:00,
2013-05-18 19:47:00,77.1,62.6,29.88,South,183,3.0,4.0,61,0.00,,,0.00,Wunderground v.1.15,2013-05-19 00:47:00,
2013-05-18 19:50:00,76.9,62.4,29.88,South,183,3.0,3.0,61,0.00,,,0.00,Wunderground v.1.15,2013-05-19 00:50:00,
2013-05-18 19:52:00,76.9,62.4,29.88,SSE,167,3.0,3.0,61,0.00,,,0.00,Wunderground v.1.15,2013-05-19 00:52:00,
2013-05-18 19:53:00,76.8,62.3,29.89,SSE,167,3.0,3.0,61,0.00,,,0.00,Wunderground v.1.15,2013-05-19 00:53:00,
2013-05-18 19:57:00,76.6,62.6,29.89,SSE,167,2.0,3.0,62,0.00,,,0.00,Wunderground v.1.15,2013-05-19 00:57:00,
2013-05-18 19:59:00,76.5,62.0,29.88,SSE,164,2.0,3.0,61,0.00,,,0.00,Wunderground v.1.15,2013-05-19 00:59:00,
2013-05-18 20:00:00,76.5,62.5,29.88,SSE,163,2.0,2.0,62,0.00,,,0.00,Wunderground v.1.15,2013-05-19 01:00:00,
2013-05-18 20:01:00,76.4,62.4,29.88,SSE,163,2.0,2.0,62,0.00,,,0.00,Wunderground v.1.15,2013-05-19 01:01:00,
2013-05-18 20:04:00,76.3,62.3,29.89,SSE,163,2.0,2.0,62,0.00,,,0.00,Wunderground v.1.15,2013-05-19 01:04:00,
2013-05-18 20:05:00,76.2,62.2,29.89,SSE,163,2.0,2.0,62,0.00,,,0.00,Wunderground v.1.15,2013-05-19 01:05:00,
2013-05-18 20:07:00,76.1,62.6,29.88,SSE,163,1.0,2.0,63,0.00,,,0.00,Wunderground v.1.15,2013-05-19 01:07:00,
2013-05-18 20:08:00,76.0,62.5,29.88,SSE,163,1.0,3.0,63,0.00,,,0.00,Wunderground v.1.15,2013-05-19 01:08:00,
2013-05-18 20:10:00,75.9,62.4,29.89,SSE,163,1.0,1.0,63,0.00,,,0.00,Wunderground v.1.15,2013-05-19 01:10:00,
2013-05-18 20:14:00,75.7,62.2,29.89,SSE,163,1.0,2.0,63,0.00,,,0.00,Wunderground v.1.15,2013-05-19 01:14:00,
2013-05-18 20:15:00,75.6,62.1,29.89,SSE,163,1.0,2.0,63,0.00,,,0.00,Wunderground v.1.15,2013-05-19 01:15:00,
2013-05-18 20:16:00,75.6,62.1,29.89,SSE,163,1.0,2.0,63,0.00,,,0.00,Wunderground v.1.15,2013-05-19 01:16:00,
2013-05-18 20:18:00,75.6,62.1,29.89,SSE,163,1.0,2.0,63,0.00,,,0.00,Wunderground v.1.15,2013-05-19 01:18:00,
2013-05-18 20:19:00,75.5,62.0,29.89,SSE,163,1.0,2.0,63,0.00,,,0.00,Wunderground v.1.15,2013-05-19 01:19:00,
2013-05-18 20:21:00,75.4,62.4,29.89,SSE,163,1.0,1.0,64,0.00,,,0.00,Wunderground v.1.15,2013-05-19 01:21:00,
2013-05-18 20:22:00,75.4,62.4,29.89,SSE,161,1.0,1.0,64,0.00,,,0.00,Wunderground v.1.15,2013-05-19 01:22:00,
2013-05-18 20:25:00,75.3,62.3,29.89,SSE,161,1.0,4.0,64,0.00,,,0.00,Wunderground v.1.15,2013-05-19 01:25:00,
2013-05-18 20:27:00,75.2,62.2,29.89,SSE,161,0.0,4.0,64,0.00,,,0.00,Wunderground v.1.15,2013-05-19 01:27:00,
2013-05-18 20:29:00,75.1,62.1,29.89,SSE,161,0.0,4.0,64,0.00,,,0.00,Wunderground v.1.15,2013-05-19 01:29:00,
2013-05-18 20:30:00,75.0,62.0,29.89,SSE,161,0.0,0.0,64,0.00,,,0.00,Wunderground v.1.15,2013-05-19 01:30:00,
2013-05-18 20:32:00,74.9,62.3,29.89,SSE,161,0.0,1.0,65,0.00,,,0.00,Wunderground v.1.15,2013-05-19 01:32:00,
2013-05-18 20:34:00,74.8,61.8,29.89,SSE,161,0.0,2.0,64,0.00,,,0.00,Wunderground v.1.15,2013-05-19 01:34:00,
2013-05-18 20:37:00,74.6,62.1,29.89,SSE,161,1.0,2.0,65,0.00,,,0.00,Wunderground v.1.15,2013-05-19 01:37:00,
2013-05-18 20:38:00,74.6,62.1,29.89,SSE,161,1.0,2.0,65,0.00,,,0.00,Wunderground v.1.15,2013-05-19 01:38:00,
2013-05-18 20:39:00,74.5,62.0,29.89,SSE,161,1.0,2.0,65,0.00,,,0.00,Wunderground v.1.15,2013-05-19 01:39:00,
2013-05-18 20:40:00,74.4,61.9,29.89,SSE,161,0.0,0.0,65,0.00,,,0.00,Wunderground v.1.15,2013-05-19 01:40:00,
2013-05-18 20:44:00,74.2,61.7,29.89,SSE,161,0.0,2.0,65,0.00,,,0.00,Wunderground v.1.15,2013-05-19 01:44:00,
2013-05-18 20:45:00,74.2,61.7,29.89,SSE,161,0.0,2.0,65,0.00,,,0.00,Wunderground v.1.15,2013-05-19 01:45:00,
2013-05-18 20:50:00,74.0,61.9,29.89,SSE,161,0.0,0.0,66,0.00,,,0.00,Wunderground v.1.15,2013-05-19 01:50:00,
2013-05-18 20:51:00,73.9,61.8,29.89,SSE,161,0.0,0.0,66,0.00,,,0.00,Wunderground v.1.15,2013-05-19 01:51:00,
2013-05-18 20:53:00,73.9,61.8,29.89,SSE,161,0.0,0.0,66,0.00,,,0.00,Wunderground v.1.15,2013-05-19 01:53:00,
2013-05-18 20:54:00,73.9,61.8,29.89,SSE,161,0.0,0.0,66,0.00,,,0.00,Wunderground v.1.15,2013-05-19 01:54:00,
2013-05-18 20:55:00,73.8,61.7,29.89,SSE,161,0.0,0.0,66,0.00,,,0.00,Wunderground v.1.15,2013-05-19 01:55:00,
2013-05-18 20:57:00,73.7,61.6,29.89,SSE,161,0.0,0.0,66,0.00,,,0.00,Wunderground v.1.15,2013-05-19 01:57:00,
2013-05-18 20:59:00,73.6,62.0,29.89,SSE,161,0.0,0.0,67,0.00,,,0.00,Wunderground v.1.15,2013-05-19 01:59:00,
2013-05-18 21:00:00,73.6,62.0,29.89,SSE,161,0.0,0.0,67,0.00,,,0.00,Wunderground v.1.15,2013-05-19 02:00:00,
2013-05-18 21:03:00,73.4,61.8,29.89,SSE,161,0.0,0.0,67,0.00,,,0.00,Wunderground v.1.15,2013-05-19 02:03:00,
2013-05-18 21:04:00,73.3,62.1,29.89,SSE,161,0.0,0.0,68,0.00,,,0.00,Wunderground v.1.15,2013-05-19 02:04:00,
2013-05-18 21:05:00,73.3,62.1,29.90,SSE,161,0.0,0.0,68,0.00,,,0.00,Wunderground v.1.15,2013-05-19 02:05:00,
2013-05-18 21:08:00,73.1,61.9,29.90,SSE,161,0.0,0.0,68,0.00,,,0.00,Wunderground v.1.15,2013-05-19 02:08:00,
2013-05-18 21:10:00,73.0,61.8,29.90,SSE,161,0.0,0.0,68,0.00,,,0.00,Wunderground v.1.15,2013-05-19 02:10:00,
2013-05-18 21:12:00,72.9,61.7,29.90,SSE,161,0.0,0.0,68,0.00,,,0.00,Wunderground v.1.15,2013-05-19 02:12:00,
2013-05-18 21:16:00,72.5,61.3,29.89,SSE,161,0.0,0.0,68,0.00,,,0.00,Wunderground v.1.15,2013-05-19 02:16:00,
2013-05-18 21:17:00,72.5,61.3,29.90,SSE,161,0.0,0.0,68,0.00,,,0.00,Wunderground v.1.15,2013-05-19 02:17:00,
2013-05-18 21:18:00,72.4,61.7,29.90,SSE,161,0.0,2.0,69,0.00,,,0.00,Wunderground v.1.15,2013-05-19 02:18:00,
2013-05-18 21:22:00,72.1,61.4,29.90,SSE,161,0.0,0.0,69,0.00,,,0.00,Wunderground v.1.15,2013-05-19 02:22:00,
2013-05-18 21:24:00,72.0,61.3,29.90,SSE,161,0.0,0.0,69,0.00,,,0.00,Wunderground v.1.15,2013-05-19 02:24:00,
2013-05-18 21:26:00,71.9,61.6,29.90,SSE,161,0.0,0.0,70,0.00,,,0.00,Wunderground v.1.15,2013-05-19 02:26:00,
2013-05-18 21:27:00,71.9,61.6,29.90,SSE,161,0.0,0.0,70,0.00,,,0.00,Wunderground v.1.15,2013-05-19 02:27:00,
2013-05-18 21:28:00,71.8,61.5,29.90,SSE,161,0.0,0.0,70,0.00,,,0.00,Wunderground v.1.15,2013-05-19 02:28:00,
2013-05-18 21:31:00,71.7,61.4,29.90,SSE,161,0.0,0.0,70,0.00,,,0.00,Wunderground v.1.15,2013-05-19 02:31:00,
2013-05-18 21:36:00,71.5,61.6,29.90,SSE,161,0.0,0.0,71,0.00,,,0.00,Wunderground v.1.15,2013-05-19 02:36:00,
2013-05-18 21:37:00,71.5,61.6,29.90,SSE,161,0.0,0.0,71,0.00,,,0.00,Wunderground v.1.15,2013-05-19 02:37:00,
2013-05-18 21:39:00,71.4,61.5,29.90,SSE,161,0.0,1.0,71,0.00,,,0.00,Wunderground v.1.15,2013-05-19 02:39:00,
2013-05-18 21:40:00,71.4,61.5,29.90,SSE,161,0.0,0.0,71,0.00,,,0.00,Wunderground v.1.15,2013-05-19 02:40:00,
2013-05-18 21:43:00,71.2,61.3,29.90,SSE,161,0.0,2.0,71,0.00,,,0.00,Wunderground v.1.15,2013-05-19 02:43:00,
2013-05-18 21:44:00,71.2,61.3,29.90,SSE,161,0.0,2.0,71,0.00,,,0.00,Wunderground v.1.15,2013-05-19 02:44:00,
2013-05-18 21:45:00,71.1,61.2,29.90,SSE,161,0.0,2.0,71,0.00,,,0.00,Wunderground v.1.15,2013-05-19 02:45:00,
2013-05-18 21:47:00,71.0,61.5,29.90,SSE,161,0.0,2.0,72,0.00,,,0.00,Wunderground v.1.15,2013-05-19 02:47:00,
2013-05-18 21:48:00,71.0,61.5,29.90,SSE,161,0.0,2.0,72,0.00,,,0.00,Wunderground v.1.15,2013-05-19 02:48:00,
2013-05-18 21:52:00,70.9,61.4,29.90,SSE,155,1.0,5.0,72,0.00,,,0.00,Wunderground v.1.15,2013-05-19 02:52:00,
2013-05-18 21:53:00,70.8,61.3,29.90,SSE,156,1.0,5.0,72,0.00,,,0.00,Wunderground v.1.15,2013-05-19 02:53:00,
2013-05-18 21:55:00,70.8,61.7,29.90,SSE,156,1.0,5.0,73,0.00,,,0.00,Wunderground v.1.15,2013-05-19 02:55:00,
2013-05-18 21:56:00,70.8,61.7,29.90,SSE,155,1.0,5.0,73,0.00,,,0.00,Wunderground v.1.15,2013-05-19 02:56:00,
2013-05-18 22:01:00,70.6,61.5,29.90,SSE,155,1.0,1.0,73,0.00,,,0.00,Wunderground v.1.15,2013-05-19 03:01:00,
2013-05-18 22:02:00,70.6,61.5,29.90,SSE,156,0.0,1.0,73,0.00,,,0.00,Wunderground v.1.15,2013-05-19 03:02:00,
2013-05-18 22:03:00,70.6,61.5,29.89,SSE,156,0.0,1.0,73,0.00,,,0.00,Wunderground v.1.15,2013-05-19 03:03:00,
2013-05-18 22:04:00,70.5,61.4,29.89,SSE,156,0.0,1.0,73,0.00,,,0.00,Wunderground v.1.15,2013-05-19 03:04:00,
2013-05-18 22:05:00,70.5,61.4,29.89,SSE,156,0.0,1.0,73,0.00,,,0.00,Wunderground v.1.15,2013-05-19 03:05:00,
2013-05-18 22:06:00,70.4,61.3,29.89,SSE,156,0.0,1.0,73,0.00,,,0.00,Wunderground v.1.15,2013-05-19 03:06:00,
2013-05-18 22:08:00,70.4,61.3,29.89,SSE,156,0.0,1.0,73,0.00,,,0.00,Wunderground v.1.15,2013-05-19 03:08:00,
2013-05-18 22:11:00,70.2,61.5,29.89,SSE,155,0.0,0.0,74,0.00,,,0.00,Wunderground v.1.15,2013-05-19 03:11:00,
2013-05-18 22:12:00,70.1,61.4,29.89,SSE,155,0.0,0.0,74,0.00,,,0.00,Wunderground v.1.15,2013-05-19 03:12:00,
2013-05-18 22:14:00,70.0,61.3,29.89,SSE,155,0.0,0.0,74,0.00,,,0.00,Wunderground v.1.15,2013-05-19 03:14:00,
2013-05-18 22:16:00,69.9,61.2,29.89,SSE,155,0.0,1.0,74,0.00,,,0.00,Wunderground v.1.15,2013-05-19 03:16:00,
2013-05-18 22:17:00,69.9,61.2,29.89,SSE,155,0.0,1.0,74,0.00,,,0.00,Wunderground v.1.15,2013-05-19 03:17:00,
2013-05-18 22:20:00,69.8,61.5,29.89,SSE,155,0.0,0.0,75,0.00,,,0.00,Wunderground v.1.15,2013-05-19 03:20:00,
2013-05-18 22:21:00,69.8,61.5,29.89,SSE,155,0.0,0.0,75,0.00,,,0.00,Wunderground v.1.15,2013-05-19 03:21:00,
2013-05-18 22:23:00,69.8,61.5,29.89,SSE,155,0.0,0.0,75,0.00,,,0.00,Wunderground v.1.15,2013-05-19 03:23:00,
2013-05-18 22:25:00,69.7,61.4,29.89,SSE,155,0.0,0.0,75,0.00,,,0.00,Wunderground v.1.15,2013-05-19 03:25:00,
2013-05-18 22:26:00,69.7,61.4,29.89,SSE,155,0.0,0.0,75,0.00,,,0.00,Wunderground v.1.15,2013-05-19 03:26:00,
2013-05-18 22:27:00,69.7,61.4,29.89,SSE,155,0.0,0.0,75,0.00,,,0.00,Wunderground v.1.15,2013-05-19 03:27:00,
2013-05-18 22:30:00,69.8,61.5,29.89,SSE,155,0.0,2.0,75,0.00,,,0.00,Wunderground v.1.15,2013-05-19 03:30:00,
2013-05-18 22:32:00,69.7,61.4,29.89,SSE,155,0.0,2.0,75,0.00,,,0.00,Wunderground v.1.15,2013-05-19 03:32:00,
2013-05-18 22:33:00,69.7,61.4,29.89,SSE,155,0.0,2.0,75,0.00,,,0.00,Wunderground v.1.15,2013-05-19 03:33:00,
2013-05-18 22:34:00,69.7,61.0,29.89,SSE,155,0.0,2.0,74,0.00,,,0.00,Wunderground v.1.15,2013-05-19 03:34:00,
2013-05-18 22:35:00,69.7,61.0,29.89,SSE,155,0.0,2.0,74,0.00,,,0.00,Wunderground v.1.15,2013-05-19 03:35:00,
2013-05-18 22:38:00,69.7,61.4,29.89,SSE,153,0.0,2.0,75,0.00,,,0.00,Wunderground v.1.15,2013-05-19 03:38:00,
2013-05-18 22:41:00,69.6,60.9,29.88,SSE,153,0.0,0.0,74,0.00,,,0.00,Wunderground v.1.15,2013-05-19 03:41:00,
2013-05-18 22:42:00,69.6,60.9,29.88,SSE,153,0.0,0.0,74,0.00,,,0.00,Wunderground v.1.15,2013-05-19 03:42:00,
2013-05-18 22:43:00,69.6,60.9,29.88,SSE,153,0.0,0.0,74,0.00,,,0.00,Wunderground v.1.15,2013-05-19 03:43:00,
2013-05-18 22:46:00,69.6,60.9,29.88,SE,143,0.0,1.0,74,0.00,,,0.00,Wunderground v.1.15,2013-05-19 03:46:00,
2013-05-18 22:48:00,69.5,60.8,29.88,SE,143,0.0,1.0,74,0.00,,,0.00,Wunderground v.1.15,2013-05-19 03:48:00,
2013-05-18 22:49:00,69.5,60.8,29.88,SE,143,0.0,1.0,74,0.00,,,0.00,Wunderground v.1.15,2013-05-19 03:49:00,
2013-05-18 22:50:00,69.5,60.8,29.88,SE,143,0.0,2.0,74,0.00,,,0.00,Wunderground v.1.15,2013-05-19 03:50:00,
2013-05-18 22:54:00,69.5,60.8,29.88,SE,141,0.0,2.0,74,0.00,,,0.00,Wunderground v.1.15,2013-05-19 03:54:00,
2013-05-18 22:55:00,69.5,60.8,29.88,SE,141,0.0,2.0,74,0.00,,,0.00,Wunderground v.1.15,2013-05-19 03:55:00,
2013-05-18 22:56:00,69.5,60.8,29.88,SE,142,0.0,2.0,74,0.00,,,0.00,Wunderground v.1.15,2013-05-19 03:56:00,
2013-05-18 22:59:00,69.5,61.2,29.88,SE,142,1.0,2.0,75,0.00,,,0.00,Wunderground v.1.15,2013-05-19 03:59:00,
2013-05-18 23:01:00,69.5,61.2,29.88,SE,141,1.0,4.0,75,0.00,,,0.00,Wunderground v.1.15,2013-05-19 04:01:00,
2013-05-18 23:02:00,69.5,61.2,29.88,SE,139,1.0,4.0,75,0.00,,,0.00,Wunderground v.1.15,2013-05-19 04:02:00,
2013-05-18 23:04:00,69.5,61.2,29.88,SSE,148,1.0,4.0,75,0.00,,,0.00,Wunderground v.1.15,2013-05-19 04:04:00,
2013-05-18 23:06:00,69.6,61.3,29.88,SE,130,2.0,6.0,75,0.00,,,0.00,Wunderground v.1.15,2013-05-19 04:06:00,
2013-05-18 23:09:00,69.7,61.4,29.87,SE,130,2.0,6.0,75,0.00,,,0.00,Wunderground v.1.15,2013-05-19 04:09:00,
2013-05-18 23:12:00,69.8,61.5,29.88,SE,134,2.0,4.0,75,0.00,,,0.00,Wunderground v.1.15,2013-05-19 04:12:00,
2013-05-18 23:13:00,69.8,61.5,29.87,SE,134,2.0,5.0,75,0.00,,,0.00,Wunderground v.1.15,2013-05-19 04:13:00,
2013-05-18 23:17:00,69.9,61.6,29.88,SSE,157,2.0,5.0,75,0.00,,,0.00,Wunderground v.1.15,2013-05-19 04:17:00,
2013-05-18 23:19:00,69.9,61.6,29.88,SSE,151,3.0,5.0,75,0.00,,,0.00,Wunderground v.1.15,2013-05-19 04:19:00,
2013-05-18 23:20:00,69.9,61.6,29.88,SSE,150,3.0,3.0,75,0.00,,,0.00,Wunderground v.1.15,2013-05-19 04:20:00,
2013-05-18 23:25:00,70.0,61.7,29.88,SE,132,3.0,6.0,75,0.00,,,0.00,Wunderground v.1.15,2013-05-19 04:25:00,
2013-05-18 23:26:00,70.0,61.7,29.88,SE,139,3.0,6.0,75,0.00,,,0.00,Wunderground v.1.15,2013-05-19 04:26:00,
2013-05-18 23:28:00,70.0,61.7,29.88,SE,138,3.0,6.0,75,0.00,,,0.00,Wunderground v.1.15,2013-05-19 04:28:00,
2013-05-18 23:29:00,70.0,61.7,29.88,SE,126,3.0,6.0,75,0.00,,,0.00,Wunderground v.1.15,2013-05-19 04:29:00,
2013-05-18 23:33:00,70.0,61.7,29.88,SE,127,3.0,4.0,75,0.00,,,0.00,Wunderground v.1.15,2013-05-19 04:33:00,
2013-05-18 23:35:00,69.9,61.6,29.88,SE,127,2.0,4.0,75,0.00,,,0.00,Wunderground v.1.15,2013-05-19 04:35:00,
2013-05-18 23:36:00,69.9,61.6,29.88,SE,127,2.0,4.0,75,0.00,,,0.00,Wunderground v.1.15,2013-05-19 04:36:00,
2013-05-18 23:38:00,69.8,61.9,29.88,SE,129,1.0,4.0,76,0.00,,,0.00,Wunderground v.1.15,2013-05-19 04:38:00,
2013-05-18 23:41:00,69.7,61.8,29.88,SE,128,1.0,2.0,76,0.00,,,0.00,Wunderground v.1.15,2013-05-19 04:41:00,
2013-05-18 23:43:00,69.7,61.8,29.88,SE,128,1.0,2.0,76,0.00,,,0.00,Wunderground v.1.15,2013-05-19 04:43:00,
2013-05-18 23:44:00,69.6,61.7,29.88,SE,128,1.0,2.0,76,0.00,,,0.00,Wunderground v.1.15,2013-05-19 04:44:00,
2013-05-18 23:45:00,69.6,61.7,29.88,SE,128,1.0,2.0,76,0.00,,,0.00,Wunderground v.1.15,2013-05-19 04:45:00,
2013-05-18 23:46:00,69.5,61.6,29.88,SE,146,1.0,3.0,76,0.00,,,0.00,Wunderground v.1.15,2013-05-19 04:46:00,
2013-05-18 23:48:00,69.5,61.6,29.88,SE,146,1.0,3.0,76,0.00,,,0.00,Wunderground v.1.15,2013-05-19 04:48:00,
2013-05-18 23:49:00,69.5,61.6,29.87,SE,146,1.0,3.0,76,0.00,,,0.00,Wunderground v.1.15,2013-05-19 04:49:00,
2013-05-18 23:52:00,69.4,61.9,29.87,SSE,147,1.0,6.0,77,0.00,,,0.00,Wunderground v.1.15,2013-05-19 04:52:00,
2013-05-18 23:53:00,69.4,61.9,29.88,SSE,147,2.0,6.0,77,0.00,,,0.00,Wunderground v.1.15,2013-05-19 04:53:00,
2013-05-18 23:55:00,69.4,61.9,29.88,SE,146,2.0,6.0,77,0.00,,,0.00,Wunderground v.1.15,2013-05-19 04:55:00,
2013-05-18 23:56:00,69.3,61.8,29.88,SE,146,2.0,6.0,77,0.00,,,0.00,Wunderground v.1.15,2013-05-19 04:56:00,
2013-05-18 23:57:00,69.3,61.8,29.88,SE,146,2.0,6.0,77,0.00,,,0.00,Wunderground v.1.15,2013-05-19 04:57:00,